[{"header": {"dx": 0.06612293990616946, "dy": 0.0552356325346848, "nx": 98, "ny": 59, "la1": 35.046912555036876, "la2": 31.78801023549047, "lo1": -121.43107172385933, "lo2": -114.95102361305473, "refTime": "2026041109", "parameterCategory": 1, "parameterNumber": 2}, "data": [11.35, 10.82, 10.82, 10.63, 10.12, 8.51, 7.69, 5.31, 4.11, 2.89, 1.25, 1.33, -0.0, -0.0, -0.0, -2.6, -2.71, -2.49, -0.0, -0.0, 2.71, 5.2, 5.52, 4.8, 3.68, 2.93, 2.93, -0.0, -0.0, -6.7, -10.41, -11.87, -12.07, -11.18, 9.83, 6.71, 6.79, 7.45, 7.45, 8.05, 10.28, 10.96, 11.62, 12.96, 14.3, 15.2, 17.43, 19.22, 17.88, 14.79, 8.38, 7.13, 7.69, 8.94, 8.94, 8.66, 9.48, 9.48, 11.09, 12.39, 12.87, 13.15, 12.56, 12.56, 11.99, 11.99, 13.15, 12.72, 13.96, 15.34, 16.66, 17.02, 16.37, 16.09, 14.84, 12.27, 12.39, 10.37, 0.0, -5.4, -5.98, -3.98, -3.11, -2.46, -2.28, 0.0, 0.0, 1.2, 4.0, 6.98, 9.02, 9.3, 10.03, 10.79, 10.79, 11.2, 10.4, 10.18, 11.35, 11.35, 10.82, 10.82, 10.12, 9.5, 7.93, 6.95, 5.48, 2.89, 2.4, 1.66, -0.0, -0.0, -0.0, -2.71, -2.02, -3.68, -0.0, -0.0, -0.0, 2.28, 4.32, 5.4, 2.6, 3.53, 3.68, -0.0, -0.0, -0.0, -3.36, -10.75, -12.79, -10.73, -9.39, 0.0, 7.2, 8.06, 8.24, 9.83, 12.07, 12.96, 12.96, 14.03, 16.05, 17.62, 19.47, 18.33, 14.79, 8.31, 8.38, 8.66, 8.66, 9.8, 9.8, 9.8, 9.8, 11.09, 11.09, 12.39, 12.87, 11.99, 11.6, 10.79, 11.64, 12.66, 12.87, 13.27, 13.96, 15.55, 16.58, 17.46, 16.76, 15.87, 15.2, 13.99, 12.39, 10.37, 0.0, -5.4, -5.98, -3.98, -3.11, -2.46, -2.28, 0.0, 0.0, 1.2, 4.0, 6.98, 9.02, 9.3, 10.03, 10.79, 10.79, 11.2, 10.4, 10.18, 11.35, 11.35, 10.82, 10.82, 10.12, 9.8, 9.06, 7.16, 6.17, 4.24, 2.45, 1.07, -0.0, -0.0, -2.1, -2.1, -4.15, -4.32, -3.53, -0.0, -0.0, -0.0, 2.71, 4.81, 6.9, 6.44, 3.39, -0.0, -2.6, -0.0, -0.0, -0.0, 5.23, 9.8, 11.62, 10.73, 9.83, 9.39, 9.54, 10.41, 12.52, 13.15, 15.27, 16.6, 17.59, 18.08, 19.4, 16.05, 10.12, 7.78, 8.05, 9.8, 9.8, 11.09, 9.17, 9.48, 10.73, 11.09, 12.39, 12.39, 11.99, 9.48, 9.17, 9.96, 10.91, 12.09, 12.82, 12.74, 12.87, 15.05, 16.99, 16.99, 17.3, 16.82, 14.75, 14.47, 13.28, 9.8, -6.2, -8.22, -6.7, -5.06, -2.97, -3.52, -2.28, -1.14, 0.0, 0.0, 3.7, 7.41, 9.8, 10.25, 9.92, 9.92, 10.48, 10.16, 10.52, 9.64, 11.88, 11.35, 11.72, 10.82, 10.12, 10.43, 10.1, 8.43, 7.38, 4.52, 2.45, 1.07, 1.98, -0.0, -0.0, -2.19, -4.32, -5.4, -3.68, -0.0, -0.0, -0.0, -0.0, 5.2, 6.21, 7.51, 4.6, -0.0, -2.49, -2.19, -0.0, -0.0, 4.98, 7.69, 11.16, 8.53, 10.41, 11.45, 11.28, 11.99, 14.39, 16.1, 16.48, 16.39, 16.76, 16.31, 12.96, 10.01, 7.51, 9.17, 9.17, 10.73, 10.73, 11.99, 11.16, 9.17, 11.16, 11.99, 12.39, 12.39, 9.48, 5.8, 6.44, 9.48, 10.12, 10.47, 12.19, 12.92, 12.3, 12.79, 16.54, 16.48, 16.48, 17.43, 16.09, 14.47, 12.87, 9.48, -9.39, -9.17, -6.3, -5.06, -3.49, -4.6, -4.23, -2.95, 0.0, 0.0, 4.54, 8.41, 10.22, 9.8, 9.17, 9.02, 9.2, 9.83, 9.96, 10.79, 12.17, 11.88, 11.72, 11.72, 10.69, 10.43, 10.1, 9.33, 7.38, 5.81, 3.6, 2.1, 1.91, -0.0, -0.0, -2.82, -4.32, -5.4, -5.4, -2.93, -0.0, -0.0, -0.0, 3.82, 2.71, 2.93, 4.48, 2.82, -0.0, -2.02, -2.6, -0.0, 2.82, 6.45, 8.22, 7.9, 8.22, 11.6, 15.65, 17.02, 17.19, 16.19, 14.9, 13.86, 12.96, 11.45, 10.35, 10.01, 9.17, 9.17, 10.37, 10.37, 11.6, 10.79, 10.79, 10.73, 11.99, 13.01, 13.44, 11.16, 7.19, 5.8, 7.78, 6.88, 7.59, 8.93, 10.87, 11.83, 12.96, 12.78, 11.87, 15.77, 16.54, 17.97, 17.7, 14.75, 9.8, 0.0, -8.85, -10.52, -6.95, -5.46, -5.06, -6.42, -6.5, -4.4, 0.0, 2.33, 5.55, 8.18, 9.27, 8.85, 8.53, 8.23, 5.21, 6.17, 10.79, 11.21, 12.62, 11.88, 12.27, 11.72, 10.69, 11.03, 10.1, 9.33, 8.43, 6.95, 3.82, 2.33, 1.84, -0.0, -0.0, -2.71, -2.82, -5.4, -8.53, -6.94, -6.94, -0.0, -0.0, 2.54, 3.04, 2.45, 3.96, 4.1, 2.45, -0.0, -0.0, -0.0, -0.0, 6.7, 9.48, 10.55, 10.55, 12.74, 17.43, 18.33, 16.09, 14.3, 11.2, 11.62, 11.2, 10.48, 10.4, 11.2, 10.41, 8.85, 10.8, 11.2, 11.87, 10.79, 11.99, 12.45, 12.58, 13.01, 13.01, 11.16, 3.96, 2.93, 3.81, 4.11, 5.04, 8.64, 10.19, 10.63, 12.3, 13.48, 13.7, 12.24, 11.35, 12.9, 14.65, 14.75, 0.0, -11.09, -10.01, -9.77, -7.27, -6.98, -6.87, -6.87, -5.92, -3.34, 0.0, 3.47, 6.8, 6.85, 6.94, 8.32, 7.9, -0.0, -0.0, 9.3, 11.91, 12.35, 12.62, 12.39, 11.88, 11.72, 11.64, 11.36, 10.75, 10.1, 8.43, 6.51, 4.54, 3.25, 3.82, 2.49, -0.0, -3.53, -3.82, -6.94, -10.41, -11.2, -12.96, -12.79, -10.43, -0.0, -0.0, 2.81, 2.98, 5.31, 4.98, 5.75, 3.39, 2.97, 3.11, 7.27, 8.22, 10.65, 12.13, 12.74, 13.01, 9.48, -0.0, -0.0, 7.44, 9.48, 9.8, 10.87, 11.87, 12.58, 11.2, 8.85, 10.41, 10.04, 12.3, 12.3, 12.3, 12.96, 12.96, 12.52, 12.96, 5.6, 2.93, 1.83, 3.01, 4.11, 5.99, 7.82, 9.74, 9.99, 11.48, 14.05, 15.53, 13.26, 11.58, 14.11, 14.79, 15.68, 11.38, -13.7, -11.5, -9.17, -7.15, -7.24, -6.45, -6.45, -4.32, -1.7, 0.0, 2.57, 5.04, 6.0, 5.78, 6.16, 9.39, -0.0, 2.71, 11.21, 12.35, 12.04, 12.21, 12.39, 12.27, 12.65, 12.0, 11.36, 11.36, 10.1, 9.06, 6.87, 4.36, 2.97, 3.82, 2.19, -0.0, -0.0, -0.0, -4.1, -9.17, -12.96, -13.41, -13.41, -13.41, -14.84, -11.06, -0.0, -0.0, 7.0, 6.6, 7.44, 5.4, 5.4, 5.6, 8.85, 8.73, 11.2, 12.58, 10.47, 10.18, 9.67, -0.0, -0.0, -0.0, 12.33, 14.39, 13.23, 12.39, 10.37, 7.19, 9.48, 9.67, 11.45, 11.87, 12.14, 12.14, 12.52, 12.07, 12.07, 11.62, -0.0, -0.0, -0.0, 1.53, 4.87, 7.93, 9.73, 10.47, 12.45, 12.92, 14.59, 16.2, 14.99, 13.84, 16.15, 15.57, 15.15, 15.61, -14.75, -11.88, -9.17, -6.21, -6.7, -5.57, -4.47, -2.71, -0.99, 0.0, 2.35, 3.85, 4.39, 3.82, 5.2, -0.0, 2.37, 8.53, 11.84, 12.79, 12.04, 13.02, 12.79, 12.79, 12.65, 12.0, 12.0, 11.36, 10.75, 9.42, 7.51, 5.69, 3.61, 3.14, 4.1, 2.45, 3.04, -0.0, -0.0, -0.0, -5.8, -0.0, 13.41, -9.48, -12.79, -12.52, 11.62, 9.83, 13.41, -0.0, 7.69, 7.69, 6.8, 10.75, 11.53, 11.21, 11.28, 10.73, 10.73, 10.08, 10.41, 8.85, 6.4, 10.12, 12.96, 11.71, 11.51, 11.99, 5.15, 5.28, 8.05, 9.8, 12.07, 12.07, 12.07, 12.07, 11.62, 11.62, 11.18, 11.18, -0.0, -0.0, -0.0, 3.56, 8.38, 11.09, 11.44, 13.42, 14.71, 15.12, 15.47, 15.61, 16.21, 16.31, 15.2, 14.22, 14.64, 14.75, -13.86, -11.09, -11.7, -9.39, -6.21, -5.4, -3.97, -1.91, 0.0, 0.0, 0.0, 0.0, 0.0, 12.07, -0.0, -0.0, 3.96, 11.2, 11.91, 13.23, 11.87, 13.44, 13.28, 13.19, 12.65, 12.65, 12.0, 12.0, 10.75, 10.12, 8.24, 6.16, 5.99, 4.75, 5.46, 5.15, 2.63, 3.47, -0.0, -0.0, -0.0, -0.0, -0.0, -0.0, 14.3, 13.86, 11.18, 8.94, -10.73, 14.75, 10.12, 13.57, 16.09, 15.2, 13.41, 12.07, 10.52, 10.28, 9.39, 11.28, 11.6, 10.37, 10.79, 11.62, 10.52, 9.86, 11.46, 4.48, 1.61, 4.71, 8.59, 8.1, 9.17, 11.45, 10.4, 7.9, 9.3, 10.4, 7.9, -0.0, -0.0, -0.0, 1.72, 6.6, 9.48, 9.8, 13.86, 14.47, 14.68, 15.2, 15.65, 15.65, 15.61, 16.05, 14.75, 14.3, 13.86, 0.0, -8.85, -10.12, -10.43, -10.46, -3.9, -4.1, -3.04, -1.71, 0.0, 0.0, 8.22, 11.62, -0.0, -0.0, 3.53, 3.68, 8.85, 11.2, 12.35, 13.67, 11.46, 13.44, 13.28, 13.19, 13.19, 12.27, 12.0, 12.0, 11.1, 9.8, 8.24, 8.15, 7.54, 7.44, 6.2, 6.4, 3.47, 3.9, 2.5, -0.0, -0.0, -0.0, 17.43, 16.99, 14.75, 14.75, 12.07, 10.28, 10.28, 12.96, 14.3, 13.41, 12.3, 8.22, 0.0, 8.22, 11.62, 11.18, 11.18, 10.4, 11.88, 13.28, 13.01, 12.07, 11.4, 10.52, 8.58, 1.58, 1.84, 4.32, 5.2, 6.3, 4.81, 4.1, 5.6, 11.62, 0.0, 0.0, -2.82, -8.22, -0.0, 1.25, 4.11, 5.46, 7.36, 10.12, 13.28, 14.16, 11.75, 10.94, 12.17, 13.2, 13.88, 14.7, 14.3, 14.3, 14.3, -9.17, -9.48, -12.65, -13.03, -12.52, -4.01, 0.0, 0.0, 6.2, 12.3, 10.8, 9.66, 9.67, 9.67, 8.22, 10.0, 8.85, 11.6, 12.27, 13.86, 12.52, 12.07, 13.8, 13.44, 12.79, 13.19, 12.27, 12.27, 12.0, 11.1, 10.43, 9.76, 9.17, 8.73, 9.16, 8.94, 6.9, 4.65, 4.65, 5.31, 3.79, -0.0, 16.09, 15.65, 11.06, 16.09, 13.41, 12.96, 12.52, 7.6, 10.28, 8.48, 9.83, 10.73, 10.73, 8.4, 7.27, 9.55, 10.28, 11.4, 10.8, 11.99, 12.39, 13.15, 12.39, 11.62, 9.55, 2.28, -0.0, -0.0, 1.98, 3.44, 2.92, 2.81, 1.78, 1.83, 2.18, 2.63, 2.5, -13.86, -10.18, -1.33, 2.18, 3.65, 5.63, 3.93, 5.81, 8.16, 10.19, 13.97, 12.79, 10.82, 13.56, 13.56, 12.33, 13.41, 12.72, -13.41, -11.16, -11.8, -14.75, -14.75, -14.31, -10.43, 15.65, 16.09, 11.38, 11.7, 12.65, 11.99, 11.12, 10.73, 11.45, 12.07, 12.52, 12.52, 12.07, 12.96, 12.07, 12.52, 13.8, 13.44, 13.28, 13.19, 12.27, 12.27, 11.64, 10.77, 10.77, 10.09, 9.48, 9.8, 10.12, 10.43, 10.75, 9.49, 8.31, 7.78, 7.51, 4.1, -0.0, 12.96, 9.17, 11.6, 12.96, 12.52, 12.52, 12.52, 11.18, 8.94, 9.83, 11.18, 11.18, 10.73, 9.97, 9.83, 9.83, 10.0, 10.0, 10.68, 10.87, 11.6, 11.09, 8.93, 4.4, 1.33, -0.0, -0.0, 1.71, 1.77, 0.89, -0.0, -0.0, -0.0, 1.34, 3.82, 7.03, 9.61, 2.37, -2.28, -0.0, 3.25, 2.91, 1.33, 1.83, 3.95, 5.87, 6.21, 6.34, 7.92, 10.25, 11.45, 13.41, -11.62, -8.22, -13.41, -13.99, -15.69, -15.65, -11.06, -10.75, 15.2, 14.75, -0.0, 6.14, 10.05, 13.39, 12.27, 10.99, 11.64, 13.15, 12.52, 0.0, 8.53, 11.71, 12.96, 12.07, 12.52, 13.8, 13.44, 13.28, 12.79, 12.65, 12.27, 11.64, 11.29, 10.77, 10.43, 10.43, 10.12, 11.2, 10.75, 12.02, 11.38, 11.06, 9.12, 10.43, 10.12, 10.12, 14.3, 10.43, 13.19, 14.75, 13.67, 13.86, 13.86, 12.96, 12.07, 10.28, 10.73, 11.62, 10.28, 10.28, 9.39, 9.29, 9.2, 9.2, 9.6, 10.27, 9.7, 9.58, 6.98, 3.87, 2.49, 2.04, -0.0, -0.0, -0.0, -0.0, -0.0, -1.58, -0.0, -0.0, 2.0, 6.4, 9.12, 7.2, -0.0, -0.99, 1.58, -0.0, -0.0, -0.0, 1.63, 2.84, 4.4, 7.32, 7.7, 10.08, 13.64, 7.8, -11.18, -10.28, -14.3, -16.91, -16.99, -0.0, 11.38, 11.06, 14.42, 13.19, -0.0, -0.0, 7.82, 10.43, 10.18, 8.85, 10.99, 12.79, 12.79, 8.22, 0.0, 10.4, 12.07, 12.07, 12.96, 13.8, 13.8, 13.28, 12.79, 12.27, 12.27, 11.64, 11.64, 11.29, 10.77, 10.77, 10.77, 11.2, 11.54, 13.1, 12.71, 11.38, 11.38, 12.52, 12.52, 14.11, 14.75, 15.2, 15.2, 15.18, 15.34, 15.49, 14.66, 14.3, 13.41, 12.96, 11.13, 11.18, 10.28, 10.28, 9.83, 10.08, 8.91, 10.38, 9.04, 10.32, 11.03, 10.38, 8.58, 4.83, 2.97, 2.7, 1.39, -0.0, -0.0, -0.0, -0.0, -0.0, -0.0, -0.0, 1.84, 5.29, 6.08, 7.0, 1.63, -0.0, -0.0, -1.53, -1.42, -0.0, 1.34, 1.38, 3.76, 5.8, 7.69, 7.26, 10.89, 17.32, 12.65, -8.85, -13.76, -16.99, -0.0, 11.06, 12.65, 12.65, 13.28, 13.59, 7.44, -0.0, -0.0, 6.2, 7.51, 8.53, 10.12, 12.6, 12.6, 11.62, 11.62, 11.62, 8.85, 9.17, 9.17, 13.8, 13.8, 13.28, 12.79, 12.27, 12.27, 11.9, 11.64, 11.64, 11.29, 10.77, 11.8, 11.8, 12.16, 12.22, 13.46, 12.36, 12.92, 13.23, 12.87, 13.42, 14.84, 15.43, 15.65, 16.09, 16.09, 15.49, 15.53, 14.75, 14.3, 13.86, 13.81, 12.03, 10.28, 9.83, 8.49, 9.29, 9.46, 10.96, 10.58, 9.89, 10.32, 9.96, 7.87, 5.63, 3.32, 2.83, 1.26, -0.0, -1.54, -1.62, -0.0, -0.0, -0.0, -0.0, -0.0, 1.84, 3.25, 4.93, 3.56, -0.0, -1.64, -4.58, -4.24, -1.64, -0.0, -0.0, 3.04, 6.63, 7.96, 7.26, 11.17, 15.97, 19.75, 15.99, 16.54, 15.18, 14.31, 14.31, 14.03, 13.88, 13.53, 12.14, 11.21, 2.82, -2.19, -0.0, 5.99, 8.24, 10.25, 12.33, 11.35, 10.84, 10.0, 11.28, 8.53, 5.8, 5.8, 13.8, 13.8, 13.28, 12.39, 12.79, 12.27, 11.9, 12.27, 12.27, 12.27, 12.27, 11.8, 11.8, 12.16, 12.52, 13.65, 12.73, 13.76, 12.92, 14.18, 15.27, 15.47, 15.47, 15.43, 15.2, 15.2, 15.49, 15.53, 15.55, 16.03, 15.58, 15.59, 14.7, 12.52, 8.05, 8.49, 8.85, 10.08, 10.08, 10.08, 10.52, 8.91, 9.13, 6.44, 5.36, 4.6, 2.83, 2.83, 1.47, -0.0, -2.17, -0.0, -0.0, -0.0, -0.0, -0.0, 2.39, 5.46, 7.59, 6.97, 2.28, -0.0, -5.52, -5.52, -5.52, -2.58, -1.62, -0.0, 5.2, 9.21, 11.35, 13.2, 17.62, 18.55, 18.61, 15.53, 13.33, 14.79, 16.54, 16.15, 15.55, 15.2, 14.3, 13.15, 3.96, -2.6, -0.0, 7.82, 10.94, 12.04, 13.49, 11.28, 11.02, 11.84, 11.62, 8.53, 4.1, 4.1, 14.07, 13.8, 13.44, 12.39, 12.39, 12.27, 12.27, 12.27, 12.27, 12.27, 12.27, 12.27, 11.8, 12.16, 12.16, 12.51, 12.37, 13.39, 13.76, 13.8, 14.84, 15.43, 14.99, 14.6, 14.75, 15.2, 15.43, 15.49, 15.97, 16.15, 16.46, 16.47, 16.48, 14.7, 10.28, 7.15, 8.49, 9.83, 10.28, 9.97, 9.39, 8.06, 7.63, 7.07, 7.15, 5.59, 4.6, 4.6, 3.32, 1.75, -0.0, -0.0, -0.0, -0.0, -0.0, -0.0, 3.11, 5.46, 5.7, 5.95, 2.71, -0.0, -3.98, -5.29, -5.29, -4.0, -4.14, -2.06, 4.4, 10.4, 14.84, 15.55, 18.85, 19.52, 17.43, 13.97, 15.1, 17.63, 18.16, 15.29, 14.81, 14.3, 14.3, -9.17, -10.0, 11.62, 12.07, 10.8, 11.71, 12.35, 11.84, 11.28, 11.02, 12.07, 11.2, 8.85, 6.94, 6.94, 14.07, 13.8, 13.02, 12.39, 12.39, 11.88, 12.27, 12.27, 12.65, 12.27, 12.27, 12.27, 12.27, 12.27, 12.51, 13.39, 12.13, 12.73, 13.58, 13.59, 14.99, 15.65, 14.47, 15.34, 14.75, 16.54, 12.52, 16.05, 17.1, 14.64, 15.55, 16.01, 16.47, 16.09, 14.3, 10.73, 8.94, 8.94, 10.28, 11.18, 9.83, 9.39, 9.39, 8.77, 8.05, 7.33, 5.86, 5.59, 3.32, 1.75, 1.84, -0.0, -0.0, -0.0, -0.0, 2.97, 3.11, 4.6, 5.95, 5.95, -0.0, -2.1, -3.53, -3.65, -4.4, -4.96, -4.14, -3.8, 9.39, 12.07, 13.86, 16.37, 19.81, 20.51, 18.14, 16.39, 15.18, 15.44, 18.38, 18.72, 16.24, 14.3, -13.57, -12.96, -11.62, -8.22, 0.0, 7.9, 11.62, 11.62, 12.02, 11.8, 11.62, 10.8, 4.24, 7.78, 10.37, 10.37, 14.07, 13.8, 13.02, 13.02, 12.39, 11.88, 12.27, 12.27, 12.65, 12.65, 12.65, 12.27, 12.27, 12.9, 12.9, 12.5, 12.51, 12.13, 13.99, 14.11, 16.05, 15.18, 14.9, 16.54, 15.87, 16.22, 16.54, 14.75, 15.2, 15.65, 15.99, 16.09, 16.09, 16.54, 16.09, 13.86, 11.62, 10.7, 9.37, 8.47, 8.49, 8.94, 8.92, 8.91, 8.48, 8.55, 6.64, 5.86, 3.49, 1.75, -0.0, -0.0, -0.0, -0.0, 1.67, 1.75, 2.49, 4.2, 7.27, 6.2, -0.0, -3.82, -3.98, -3.82, -4.0, -4.6, -4.0, -0.0, 10.28, 11.28, 13.36, 16.49, 19.64, 20.56, 19.22, 17.39, 15.53, 15.18, 16.36, 18.54, 18.66, 17.43, -14.11, -12.79, -11.62, -10.6, -7.27, 0.0, 10.38, 10.18, 11.98, 12.96, 12.52, 5.8, -0.0, 8.31, 10.73, 10.73, 13.63, 13.8, 13.02, 13.02, 12.62, 12.39, 12.27, 12.27, 12.65, 12.65, 12.65, 12.65, 12.27, 12.9, 13.29, 13.29, 13.29, 12.66, 11.6, 13.59, 16.12, 15.27, 15.87, 15.05, 15.11, 15.55, 15.11, 15.65, 16.09, 16.54, 16.54, 16.54, 16.54, 16.54, 16.54, 15.2, 13.41, 11.59, 10.7, 8.92, 8.94, 9.39, 9.81, 9.81, 8.97, 9.32, 6.64, 5.86, 3.49, -0.0, -0.0, -0.0, -0.0, -0.0, 1.84, 3.32, 4.83, 6.95, 7.59, 3.25, -0.0, -3.82, -6.17, -6.17, -4.6, -5.63, -3.11, -0.0, 9.3, 11.61, 12.75, 15.16, 18.63, 18.55, 17.28, 16.19, 12.71, 13.76, 14.73, 15.2, 17.35, 17.94, 15.65, -13.59, -12.96, -10.73, -9.83, 0.0, 8.93, 8.82, 10.4, 12.71, 13.41, 9.17, -0.0, 9.48, 12.04, 12.04, 13.63, 13.37, 13.02, 13.02, 12.62, 12.62, 12.17, 12.27, 12.65, 12.65, 12.65, 12.65, 13.19, 13.19, 13.19, 13.29, 13.89, 13.07, 12.66, 13.99, 15.27, 15.07, 15.18, 15.55, 16.46, 16.99, 16.54, 15.65, 15.65, 16.09, 16.54, 16.47, 16.48, 16.54, 16.54, 16.09, 14.75, 12.96, 11.18, 10.28, 8.94, 9.37, 9.36, 9.36, 8.55, 6.95, 7.56, 6.95, 1.84, -0.0, -0.0, -0.0, -0.0, -0.0, 1.84, 1.84, 4.2, 6.17, 4.6, -0.0, -1.84, -3.65, -4.83, -5.63, -5.63, -5.46, -5.46, -0.0, 1.91, 4.24, 8.05, 12.29, 16.39, 17.81, 8.53, 10.09, 11.29, 11.32, 12.33, 13.9, 15.65, 15.13, 16.33, 14.03, 13.86, -0.0, 10.73, 10.4, 10.35, 10.73, 11.09, 12.86, 13.41, 11.99, 9.17, 11.6, 12.71, 12.71, 13.67, 13.67, 13.44, 13.02, 12.62, 12.62, 12.17, 12.56, 12.65, 12.65, 13.03, 13.03, 13.19, 13.19, 13.19, 13.59, 14.11, 13.7, 13.28, 13.99, 15.27, 14.84, 14.4, 15.11, 16.01, 16.92, 17.43, 16.99, 16.54, 15.65, 15.65, 16.09, 16.04, 16.04, 16.09, 16.09, 15.65, 13.41, 11.62, 10.73, 9.81, 9.37, 9.36, 8.84, 8.06, 6.95, 8.18, 5.63, 1.67, 1.58, 1.67, 1.67, 1.67, -0.0, 1.75, 1.84, 3.7, 4.4, 4.8, -6.01, -5.36, -2.97, -2.83, -4.2, -4.4, -4.6, -5.7, -4.6, -4.15, -1.44, 1.61, 9.22, 18.72, -9.42, -5.95, 4.96, 6.94, 7.38, 8.13, 9.12, 13.02, 15.2, 13.88, 13.88, 12.94, 11.87, 12.52, 12.71, 13.41, 12.71, 12.52, 12.14, 12.14, 12.04, 12.58, 12.52, 12.52, 12.52, 13.67, 13.67, 13.44, 13.15, 12.79, 12.62, 12.62, 12.56, 12.95, 12.95, 13.34, 13.34, 13.84, 13.19, 13.59, 13.59, 14.11, 13.7, 13.7, 13.7, 14.84, 15.27, 14.84, 14.03, 14.68, 16.03, 16.92, 17.36, 17.35, 16.46, 16.09, 15.2, 15.65, 15.65, 15.65, 15.65, 15.65, 13.86, 12.04, 10.7, 10.26, 10.26, 9.81, 8.84, 7.63, 6.41, 8.54, 6.64, 3.8, 2.54, 1.4, 1.67, 1.67, 1.67, 1.67, 1.75, 2.69, 3.7, 4.8, -0.0, -5.69, -5.1, -1.84, -1.93, -2.39, -4.6, -2.49, -3.53, -4.6, -6.17, -0.0, 16.84, 21.51, 20.78, -12.64, 0.0, 6.97, 5.98, 5.02, 4.81, 6.66, 11.8, 14.14, 14.75, 14.27, 12.96, 13.41, 13.41, 10.73, 8.38, 11.2, 10.24, 11.6, 11.72, 12.52, 12.52, 12.52, 12.52, 13.67, 13.67, 13.44, 13.15, 12.72, 12.38, 12.62, 13.02, 12.56, 12.95, 13.34, 13.84, 13.84, 13.84, 13.84, 13.84, 13.86, 13.86, 13.86, 14.11, 14.99, 15.84, 16.22, 15.34, 14.47, 15.14, 16.48, 16.92, 16.71, 16.9, 16.46, 16.09, 15.65, 15.2, 15.2, 15.2, 15.2, 14.71, 12.48, 10.7, 10.26, 9.81, 9.36, 9.28, 8.06, 6.8, 6.95, 6.51, 5.69, 3.85, 2.54, 2.7, 1.32, 1.58, 1.67, 2.06, 2.83, -0.0, 1.93, 1.93, -0.0, -4.71, -2.17, -0.0, -1.84, -1.93, -2.02, -0.0, -2.02, -0.0, 11.02, 14.42, 19.25, 20.37, 19.39, 20.12, 9.89, 5.98, 5.15, 2.52, 3.58, 7.28, 11.87, 14.6, 14.55, 13.41, 12.45, 7.78, 4.98, 6.2, 7.93, 9.88, 11.99, 12.56, 11.84, 12.07, 12.07, 12.07, 13.67, 13.67, 13.01, 13.01, 12.72, 12.72, 12.79, 13.02, 13.43, 12.95, 13.43, 13.84, 13.84, 14.24, 14.24, 13.84, 13.86, 13.86, 13.86, 14.28, 15.09, 15.84, 16.66, 16.22, 15.78, 14.95, 15.59, 16.31, 16.71, 16.71, 16.71, 16.47, 16.48, 15.65, 15.2, 15.2, 15.16, 15.16, 13.82, 11.15, 10.19, 10.26, 9.81, 9.28, 8.48, 7.2, 6.95, 6.95, 5.98, 4.56, 2.5, 1.84, 1.26, 1.25, 3.15, 3.8, 2.69, -0.0, -1.47, 1.62, 3.65, 2.49, -0.0, -1.75, -0.0, -0.0, -0.0, -0.0, 2.02, 7.27, 10.18, 13.88, 15.19, 17.58, 20.01, 19.65, 19.4, 0.0, 0.0, 0.0, 0.0, 4.18, 9.09, 12.16, 12.89, 13.59, 6.9, 4.98, 4.98, 3.68, 6.4, 9.64, 12.56, 13.28, 12.3, 12.14, 11.71, 11.71, 13.23, 13.23, 13.01, 13.01, 12.72, 13.15, 12.79, 13.2, 13.43, 13.43, 13.43, 13.84, 13.84, 14.24, 14.24, 13.84, 13.86, 13.86, 13.86, 14.28, 15.09, 15.53, 15.84, 16.66, 16.27, 15.83, 15.43, 15.87, 16.31, 16.27, 16.27, 15.83, 15.83, 16.48, 16.49, 16.05, 15.61, 15.61, 15.05, 13.72, 11.51, 10.18, 9.74, 9.29, 8.48, 7.6, 7.34, 6.95, 6.28, 4.32, 2.54, 1.95, 1.88, 2.06, 2.51, 2.82, 1.67, -0.0, -1.14, -0.0, 3.65, 3.7, -0.0, -1.2, -0.0, -0.0, -0.0, -0.0, 2.1, 7.59, 10.27, 11.78, 13.99, 15.04, 16.14, 20.07, 19.27, 8.4, -16.05, -10.04, -0.0, -0.0, 10.75, 12.79, 12.96, 9.8, 7.59, 6.2, 6.0, 4.1, 5.11, 9.48, 11.53, 12.95, 12.27, 12.66, 12.89, 12.89, 13.25, 13.25, 13.07, 13.07, 12.82, 13.25, 12.79, 13.2, 13.62, 13.43, 13.43, 13.84, 14.03, 14.44, 14.44, 14.24, 13.86, 13.86, 14.28, 14.7, 14.7, 15.53, 15.96, 16.27, 16.27, 16.27, 15.87, 15.43, 15.43, 15.87, 15.83, 15.83, 15.83, 15.87, 15.87, 16.05, 16.05, 15.49, 15.49, 14.6, 12.83, 10.62, 9.18, 8.97, 8.55, 8.55, 8.55, 7.17, 6.01, 3.64, 1.95, 1.44, 2.0, 2.18, 2.44, 2.4, 2.4, -0.0, -0.0, -0.0, 2.21, 3.7, -0.0, -0.0, -0.0, -0.0, -0.0, -9.83, -0.0, 10.0, 11.03, 12.07, 12.79, 14.3, 15.68, 18.26, 22.5, 16.6, 14.3, -11.03, -2.1, -0.0, -0.0, -0.0, -0.0, 3.36, 4.38, 5.02, 6.2, 6.43, 6.44, 9.17, 11.16, 12.41, 13.16, 13.58, 14.21, 14.21, 13.25, 13.25, 13.07, 13.07, 12.82, 13.25, 12.79, 13.2, 13.62, 13.62, 13.62, 14.03, 14.03, 14.44, 14.44, 14.44, 14.03, 13.99, 14.42, 14.84, 14.84, 15.09, 15.53, 15.96, 16.27, 16.27, 15.87, 15.43, 15.43, 15.43, 15.61, 15.53, 15.83, 15.83, 15.87, 15.91, 15.91, 15.93, 15.49, 15.49, 13.72, 11.06, 9.15, 9.33, 8.99, 8.14, 9.13, 8.23, 4.83, 2.4, 1.84, 1.44, 1.49, 1.76, 1.73, 1.71, 1.05, 1.14, -0.0, -0.0, 2.21, 2.46, -0.0, -0.0, -0.0, -0.0, -0.0, 10.28, -4.2, 7.27, 11.51, 12.22, 12.27, 4.93, 10.86, 16.48, 18.76, 20.6, 16.3, 12.96, -10.28, -2.97, 3.53, 3.98, 4.24, 3.68, 3.25, 5.63, 8.31, 9.02, 8.3, 9.17, 10.23, 11.66, 13.03, 14.03, 14.39, 14.39, 13.25, 13.25, 13.07, 13.07, 12.82, 13.25, 12.93, 13.2, 13.62, 13.62, 13.62, 13.62, 14.03, 14.44, 14.44, 14.44, 14.44, 14.42, 14.42, 14.42, 14.84, 14.75, 15.18, 15.53, 15.53, 16.27, 15.87, 15.43, 15.43, 15.43, 15.18, 15.09, 15.39, 15.39, 15.43, 15.46, 15.91, 15.91, 15.49, 15.49, 14.6, 12.37, 10.02, 8.06, 7.01, 8.58, 10.88, 8.53, 5.75, 4.07, 2.6, 1.76, 1.28, 1.2, 1.18, 1.73, 1.18, 1.25, -0.0, 0.83, 0.89, 1.11, -0.0, -0.0, -1.33, -0.0, 1.14, 2.6, 0.0, -2.97, 10.73, 10.62, 12.72, 11.28, 5.46, 12.33, 17.68, 16.54, 19.62, 16.76, 13.19, -9.6, -0.0, 3.7, 4.07, 5.45, 5.45, 7.34, 9.31, 9.02, 8.05, 8.87, 10.59, 11.31, 12.42, 13.59, 14.56, 14.56, 13.25, 13.25, 13.07, 13.07, 12.82, 13.25, 13.25, 13.35, 13.62, 13.62, 13.62, 13.62, 14.03, 14.44, 14.44, 14.44, 14.44, 14.42, 14.42, 14.42, 14.42, 14.42, 14.75, 15.18, 15.53, 15.83, 15.87, 15.43, 14.99, 14.99, 15.39, 15.09, 14.9, 14.95, 14.95, 14.99, 15.46, 15.46, 15.46, 15.49, 15.05, 13.25, 10.89, 8.91, 7.63, 9.13, 11.72, 10.02, 7.18, 5.14, 3.14, 2.44, 1.76, 1.1, 1.2, 1.88, 2.0, 1.25, 0.63, -0.0, -0.0, -0.0, -0.0, -1.84, -2.97, -4.0, -1.33, 4.8, 7.27, 9.83, 9.39, 9.2, 12.2, 15.74, 13.12, 8.6, 12.77, 14.39, 15.07, 20.1, 17.4, 14.51, -0.0, 4.4, 4.92, 5.3, 5.86, 9.42, 9.13, 8.05, 6.2, 8.87, 11.09, 12.39, 12.39, 13.37, 14.47, 14.47, 13.28, 13.28, 13.28, 13.07, 13.07, 13.25, 13.25, 13.35, 13.62, 13.62, 13.62, 13.62, 13.62, 14.03, 14.44, 14.44, 14.84, 14.84, 14.84, 14.53, 14.53, 14.53, 15.18, 15.18, 15.18, 15.83, 15.87, 14.99, 16.15, 14.07, 14.95, 14.99, 14.56, 14.95, 14.51, 14.99, 15.02, 15.46, 15.46, 15.49, 15.49, 14.14, 11.33, 9.33, 9.33, 10.01, 10.96, 10.85, 8.85, 5.38, 3.42, 2.96, 2.29, 1.12, 0.62, 1.4, 2.06, 1.28, 0.63, -0.0, -0.0, -0.0, -0.0, -0.0, -2.83, -6.32, -6.01, -0.0, 7.59, 9.2, 7.81, 9.33, 12.72, 15.85, 20.94, 7.07, 2.47, 7.82, 12.39, 16.34, 18.78, 17.43, 16.12, 7.69, 7.19, 6.92, 7.36, 7.59, 9.8, 6.65, 4.24, 6.9, 10.3, 12.17, 12.33, 13.57, 14.08, 14.08, 13.28, 13.28, 13.28, 13.11, 13.11, 13.5, 13.25, 13.35, 13.62, 13.62, 13.62, 13.62, 13.62, 13.62, 14.44, 14.44, 14.84, 14.95, 14.95, 14.53, 14.95, 15.25, 15.18, 14.75, 15.18, 15.18, 15.43, 14.99, 14.11, 15.71, 13.8, 14.66, 15.09, 15.09, 14.95, 14.99, 15.02, 15.02, 15.46, 15.49, 15.46, 14.58, 12.14, 9.75, 9.49, 10.43, 10.55, 10.94, 8.22, 4.87, 4.07, 3.85, 3.14, 2.06, 0.67, 0.62, 1.14, 1.12, 1.2, 0.56, -0.0, -0.0, -0.0, -0.0, -0.0, -3.8, -4.71, -3.8, 7.27, 9.2, 8.54, 10.08, 11.06, 15.2, 21.19, 25.57, 0.0, 6.7, 11.99, 15.3, 16.54, 15.6, 16.22, 11.7, 7.1, 9.31, 9.76, 9.17, 9.8, 4.81, 2.54, 4.81, 10.47, 11.99, 13.25, 13.75, 13.88, 13.88, 12.93, 12.93, 13.28, 13.28, 13.28, 13.5, 13.25, 13.67, 13.2, 13.62, 13.62, 13.62, 13.62, 13.62, 14.19, 14.6, 14.95, 14.53, 14.53, 14.95, 14.95, 15.25, 15.25, 14.75, 14.75, 15.18, 15.43, 14.99, 14.99, 14.55, 14.31, 14.23, 14.23, 14.66, 14.95, 14.99, 15.02, 15.02, 15.49, 15.49, 15.6, 15.02, 13.01, 10.18, 9.49, 10.0, 10.4, 10.56, 8.53, 5.38, 4.6, 4.6, 4.37, 2.75, 0.76, -0.0, 0.67, 1.12, 1.2, 0.56, -0.0, -0.0, -0.0, -0.0, -0.0, -2.06, -0.0, -0.0, 6.95, 8.58, 8.23, 10.6, 11.62, 13.23, 19.19, 23.52, 19.67, 6.2, 13.75, 15.02, 16.99, 16.05, 16.41, 12.01, -0.0, 5.31, 9.48, 9.46, 7.78, 4.65, 2.37, 3.96, 8.85, 12.3, 12.88, 13.59, 14.06, 14.06, 12.94, 12.94, 13.38, 13.38, 13.25, 13.07, 13.25, 13.57, 13.2, 13.62, 13.62, 13.62, 13.62, 13.62, 14.19, 14.95, 14.53, 14.53, 14.53, 14.95, 15.25, 15.25, 15.25, 15.18, 14.75, 14.75, 15.43, 14.99, 14.99, 14.99, 14.31, 13.8, 13.8, 13.8, 14.51, 14.99, 15.02, 15.02, 15.02, 15.46, 15.6, 14.99, 13.44, 10.92, 9.03, 9.6, 10.4, 10.18, 8.53, 5.9, 4.71, 4.83, 4.37, 3.8, 2.12, 0.69, -0.0, 0.65, 1.2, 0.56, -0.0, -0.0, -0.0, -0.0, -0.0, -0.0, -0.0, -0.0, 5.21, 8.03, 8.23, 10.09, 12.14, 12.96, 16.09, 17.42, 18.66, 18.78, 15.49, 15.83, 15.61, 16.09, 15.99, 8.68, -3.79, -0.0, 4.81, 6.2, 7.51, 6.21, 6.97, 6.71, 8.22, 11.71, 12.52, 12.52, 13.72, 13.72, 12.96, 12.96, 13.41, 13.41, 13.37, 13.01, 13.15, 12.79, 13.2, 13.2, 13.62, 13.62, 13.77, 13.77, 14.1, 14.53, 14.53, 14.53, 14.53, 14.95, 15.25, 15.25, 15.25, 15.18, 15.18, 14.75, 14.99, 14.99, 14.55, 14.55, 14.31, 14.23, 13.8, 13.37, 14.07, 14.11, 14.58, 15.02, 15.02, 15.15, 15.15, 15.15, 13.88, 11.34, 9.36, 9.03, 9.6, 9.52, 8.53, 6.98, 5.28, 4.71, 4.83, 4.6, 2.75, 1.44, 0.73, 0.76, 1.4, 0.56, -0.0, -0.0, -0.0, -0.0, -0.0, -0.0, -0.0, 4.2, 5.21, 5.9, 7.9, 8.93, 11.99, 12.89, 14.3, 15.2, 15.77, 17.52, 20.51, 21.01, 18.78, 15.2, 13.41, 4.1, -6.0, -3.25, -0.0, 4.48, 5.98, 7.26, 8.22, 8.22, 10.04, 11.2, 12.35, 12.39, 12.52, 12.52, 12.96, 12.96, 13.41, 13.41, 13.36, 13.01, 13.15, 12.79, 13.2, 13.2, 13.35, 13.77, 13.77, 13.77, 14.1, 14.53, 14.53, 14.53, 14.53, 14.95, 15.25, 15.25, 15.25, 15.18, 14.75, 14.75, 14.99, 14.99, 14.55, 14.55, 14.31, 14.23, 13.8, 13.37, 13.63, 13.67, 14.14, 14.58, 14.58, 15.15, 15.15, 15.15, 13.37, 10.88, 8.0, 8.55, 9.03, 9.16, 7.72, 7.26, 5.76, 5.9, 5.06, 4.83, 2.9, 2.12, 0.73, 0.8, 0.65, -0.0, -0.0, -0.0, -0.0, -0.0, -0.0, -0.0, -0.0, 2.17, 4.2, 5.63, 6.14, 7.9, 10.73, 13.02, 14.84, 11.9, 14.03, 16.5, 21.34, 23.21, 19.94, 14.99, 11.91, 3.82, -3.04, -0.0, 2.54, 4.48, 7.82, 8.53, 9.42, 10.73, 10.73, 12.3, 12.79, 12.42, 12.96, 12.52, 12.96, 12.96, 12.96, 13.41, 13.23, 12.6, 13.02, 12.79, 13.2, 13.2, 13.35, 13.35, 13.35, 13.35, 14.1, 14.53, 14.53, 14.53, 14.53, 15.25, 15.25, 15.25, 15.25, 15.18, 15.18, 14.75, 14.99, 14.99, 14.55, 14.55, 13.88, 13.8, 13.8, 13.37, 13.63, 13.67, 13.7, 14.14, 14.58, 14.71, 14.71, 15.15, 12.94, 10.05, 7.73, 9.36, 9.58, 8.69, 8.02, 7.54, 7.26, 6.41, 5.52, 4.83, 3.51, 2.12, 1.52, 1.52, 0.69, -0.0, -0.0, -0.0, -0.0, -0.0, -0.0, -0.0, -0.0, 1.4, 2.83, 2.97, 2.97, 5.98, 10.55, 13.35, 16.38, 11.8, 1.58, 13.39, 19.98, 20.56, 17.59, 15.41, 14.18, 9.17, -4.1, -0.0, 2.63, 6.9, 10.12, 10.41, 11.2, 11.87, 11.87, 12.86, 12.88, 12.52, 12.96, 12.96, 12.96, 12.96, 12.96, 13.37, 13.01, 12.6, 12.21, 12.79, 13.2, 13.2, 13.35, 13.35, 13.35, 13.67, 14.1, 14.1, 14.53, 14.61, 14.53, 14.81, 15.25, 15.25, 15.25, 14.75, 14.75, 14.31, 14.55, 14.55, 14.55, 14.55, 13.88, 13.8, 13.8, 13.63, 13.63, 13.67, 13.7, 13.7, 14.26, 14.26, 14.71, 14.7, 12.94, 9.96, 8.99, 10.58, 11.5, 10.02, 8.61, 8.61, 7.82, 6.92, 6.41, 5.29, 3.8, 2.75, 2.23, 0.77, 0.69, -0.0, -0.0, -0.0, -0.0, -0.0, -0.0, -0.0, -0.0, 1.47, 2.83, 2.97, 3.11, 5.7, 10.41, 12.27, 14.85, 15.91, 0.0, 2.57, 12.01, 15.2, 13.7, 15.27, 17.02, 15.61, -0.0, -0.0, 6.4, 10.12, 11.99, 12.14, 12.83, 12.96, 12.96, 12.96, 12.96, 12.91, 12.47, 12.96, 12.96, 12.96, 12.93, 12.81, 13.01, 12.6, 12.21, 12.79, 12.79, 13.35, 13.35, 13.35, 13.35, 13.67, 14.1, 14.18, 14.61, 14.61, 14.86, 14.81, 14.81, 14.81, 15.25, 15.18, 14.75, 14.31, 14.55, 14.55, 14.55, 14.55, 14.11, 13.37, 13.37, 13.63, 13.63, 13.67, 13.7, 13.7, 13.82, 13.82, 14.3, 14.7, 13.63, 10.92, 10.08, 11.85, 11.72, 10.69, 9.21, 8.91, 8.23, 7.18, 6.67, 5.52, 4.0, 2.99, 2.9, 1.52, 0.73, -0.0, -0.0, -0.59, -1.25, -0.0, -0.0, -0.0, -0.0, -0.0, 1.4, 2.58, 3.11, 4.4, 9.08, 10.19, 12.09, 14.88, 19.08, -2.72, -2.5, 12.52, 8.18, 14.13, 17.43, 19.2, 14.75, 11.16, 11.44, 13.28, 13.31, 12.9, 12.96, 12.86, 12.58, 12.75, 12.58, 12.58, 12.14, 12.14, 12.94, 12.94, 12.85, 12.83, 12.63, 12.72, 12.38, 12.79, 12.79, 12.93, 12.93, 13.35, 13.67, 13.67, 13.75, 14.18, 14.18, 14.61, 14.42, 14.81, 14.81, 14.81, 14.81, 14.81, 14.75, 14.31, 14.55, 14.55, 14.55, 14.55, 14.11, 13.37, 13.37, 13.63, 13.19, 13.67, 13.7, 13.82, 13.82, 13.86, 14.3, 14.26, 13.63, 11.64, 10.92, 11.39, 12.56, 11.35, 9.17, 8.61, 7.96, 7.41, 6.41, 5.06, 3.8, 3.6, 2.23, 1.52, 0.73, -0.0, -0.0, -1.16, -1.76, -1.58, -0.0, -0.0, -0.0, -0.0, 1.4, 1.54, 3.11, 5.06, 7.9, 8.93, 11.37, 12.82, 17.16, 21.63, 0.0, -12.96, 6.8, 15.91, 19.37, 21.2, 18.03, 13.15, 13.86, 13.86, 13.41, 12.91, 12.91, 12.51, 12.04, 12.04, 12.1, 11.55, 11.55, 11.55, 12.86, 12.86, 12.86, 12.85, 12.63, 12.72, 12.38, 12.38, 12.79, 12.93, 12.93, 13.25, 13.67, 13.75, 13.75, 14.18, 14.18, 14.42, 14.42, 14.81, 14.81, 14.81, 14.81, 14.81, 14.31, 13.88, 14.55, 14.55, 14.55, 14.55, 14.11, 13.67, 13.63, 13.19, 13.19, 13.23, 13.82, 13.82, 13.82, 13.86, 14.3, 14.26, 13.63, 12.08, 11.34, 11.39, 11.5, 10.23, 8.53, 8.22, 6.86, 6.86, 6.31, 4.6, 4.37, 3.6, 2.75, 2.12, 1.44, 0.63, -0.0, -1.16, -1.71, -2.54, -0.0, -0.0, -0.0, -0.0, 1.4, 1.47, 3.49, 4.83, 6.95, 9.1, 10.58, 11.77, 13.99, 17.99, 19.31, 17.85, 15.69, 17.78, 20.11, 21.01, 19.01, 13.31, 13.15, 12.45, 13.01, 12.51, 12.14, 11.76, 11.6, 11.38, 11.2, 10.8, 10.8, 10.8, 12.42, 12.42, 12.86, 12.85, 12.68, 12.3, 12.38, 12.38, 12.52, 12.93, 12.93, 13.25, 13.75, 13.75, 13.75, 14.18, 14.42, 14.42, 14.42, 14.37, 14.81, 14.81, 14.81, 14.81, 14.81, 14.31, 14.55, 14.55, 14.55, 14.55, 14.11, 14.11, 13.63, 13.63, 13.19, 13.36, 13.37, 13.82, 13.86, 13.86, 14.3, 14.26, 13.63, 12.51, 11.34, 10.99, 10.73, 9.88, 8.22, 7.59, 6.48, 6.18, 5.21, 4.71, 4.37, 2.99, 2.82, 2.0, 1.36, 0.63, -0.0, -1.16, -2.23, -2.29, -1.67, -0.0, -0.0, -0.0, 1.47, 1.47, 4.4, 4.6, 6.64, 8.72, 10.0, 11.14, 12.74, 13.83, 14.64, 16.55, 18.84, 20.98, 21.38, 21.42, 19.34, 14.9, 12.79, 10.47, 11.26, 11.44, 12.56, 9.82, 10.37, 9.88, 9.89, 9.52, 9.52, 9.52, 12.42, 12.42, 12.42, 12.85, 12.68, 12.3, 12.38, 12.38, 12.52, 12.93, 13.25, 13.25, 13.75, 13.75, 13.75, 14.42, 14.42, 14.42, 14.42, 14.42, 14.37, 14.37, 14.81, 14.81, 14.37, 14.31, 14.55, 14.55, 14.55, 14.55, 14.11, 14.11, 13.63, 13.63, 13.23, 13.36, 13.37, 13.82, 13.86, 13.86, 13.86, 14.26, 13.63, 12.94, 11.76, 10.8, 10.73, 9.88, 9.53, 7.9, 6.77, 5.89, 4.46, 4.46, 4.46, 2.99, 2.99, 2.6, 1.88, 0.59, -0.0, -0.58, -1.71, -2.26, -1.14, -0.0, -0.0, -0.0, 1.4, 1.75, 3.32, 4.83, 6.95, 8.93, 9.77, 10.8, 11.6, 12.62, 12.27, 12.3, 14.42, 20.51, 24.19, 22.8, 22.7, 16.46, 12.83, 10.79, 9.96, 11.16, 10.35, 7.59, 8.22, 8.82, 9.3, 8.94, 8.94, 8.94, 12.49, 12.49, 12.49, 12.85, 12.63, 12.3, 11.97, 12.38, 12.82, 13.25, 13.25, 13.32, 13.32, 13.75, 13.99, 13.99, 13.99, 13.99, 13.99, 13.99, 14.37, 14.37, 14.37, 14.81, 14.75, 14.31, 14.11, 14.55, 14.55, 14.55, 14.55, 14.11, 14.07, 13.63, 13.23, 13.36, 13.37, 13.37, 13.86, 13.86, 13.86, 13.81, 13.63, 12.94, 12.18, 10.8, 10.73, 10.41, 9.88, 8.75, 7.59, 6.18, 5.89, 4.46, 3.91, 2.99, 2.82, 2.82, 1.88, 0.56, -0.0, -0.58, -1.71, -2.26, -1.23, -0.0, -0.0, -0.0, -0.0, 1.67, 1.75, 3.49, 6.14, 8.24, 8.49, 9.3, 10.56, 11.42, 10.91, 10.24, 12.89, 17.8, 21.3, 23.9, 24.55, 17.7, 15.05, 10.79, 9.17, 9.66, 10.4, 7.9, 6.71, 7.59, 7.59, 7.59, 7.59, 7.59, 12.49, 12.49, 12.49, 12.39, 12.63, 12.3, 11.97, 12.82, 12.82, 12.82, 13.25, 13.32, 13.32, 13.99, 13.99, 13.99, 13.99, 13.99, 13.99, 13.99, 14.37, 14.37, 14.81, 14.81, 14.75, 14.55, 14.11, 13.67, 14.11, 14.11, 14.55, 14.55, 14.07, 13.63, 13.23, 13.36, 13.37, 13.38, 13.41, 13.41, 13.36, 13.81, 13.63, 12.94, 12.18, 11.2, 11.12, 10.41, 10.41, 8.75, 8.07, 6.77, 6.18, 5.89, 3.91, 3.91, 2.82, 2.82, 1.88, 1.1, -0.0, -0.58, -2.23, -2.75, -2.14, -1.58, -0.0, -0.0, -0.0, 2.06, 3.49, 3.49, 4.6, 6.87, 6.98, 7.9, 8.69, 9.69, 9.96, 10.24, 11.64, 14.88, 19.07, 19.85, 25.45, 11.41, 13.95, 12.27, 10.35, 9.66, 9.67, 10.0, 7.59, 5.7, 7.59, 7.59, 7.59, 7.59, 12.49, 12.49, 12.49, 12.39, 12.14, 12.3, 12.3, 12.82, 12.82, 12.82, 13.32, 13.55, 13.55, 13.99, 13.99, 13.99, 13.99, 13.99, 13.99, 13.94, 13.94, 14.37, 14.37, 14.58, 14.55, 14.55, 14.11, 13.67, 13.67, 13.67, 13.67, 14.11, 14.07, 13.63, 13.36, 13.36, 13.37, 13.41, 13.41, 13.41, 13.36, 13.36, 13.67, 12.94, 12.18, 11.2, 11.6, 10.79, 10.04, 9.17, 8.07, 7.27, 6.48, 6.18, 4.46, 3.91, 3.27, 2.99, 2.18, 1.2, -0.0, -0.55, -1.71, -2.75, -3.0, -2.26, -0.0, -0.0, -0.0, 2.17, 2.97, -0.0, 3.11, 4.05, 5.69, 7.36, 8.22, 8.53, 9.26, 9.9, 10.9, 12.26, 15.18, 19.3, 23.99, -7.21, 6.6, 10.18, 11.18, 11.4, 10.6, 10.73, 10.28, 0.0, 3.25, 5.7, 5.7, 5.7, 12.52, 12.07, 12.49, 12.37, 11.87, 12.3, 12.39, 12.39, 12.82, 12.82, 13.55, 13.55, 13.99, 13.99, 13.55, 13.55, 13.55, 13.55, 13.55, 13.94, 13.94, 14.58, 14.58, 14.58, 14.55, 14.55, 14.11, 14.11, 13.67, 13.23, 13.23, 13.23, 13.63, 13.63, 13.36, 12.93, 12.93, 12.96, 12.96, 12.93, 13.36, 13.23, 13.23, 12.94, 12.18, 11.6, 11.6, 10.94, 10.04, 9.67, 8.07, 7.74, 6.48, 5.36, 4.71, 4.12, 3.27, 3.27, 2.18, 1.2, -0.0, -0.0, -1.73, -2.75, -3.45, -3.0, -1.18, -0.0, 1.14, 1.4, 3.32, 2.17, -0.0, 1.69, 3.77, 5.21, 6.86, 7.72, 8.07, 9.96, 10.55, 11.28, 11.9, 18.24, 22.48, -19.29, -16.09, 10.28, 10.73, 11.4, 11.28, 11.18, 0.0, 0.0, 0.0, 3.11, 3.11, 3.11, 12.07, 12.07, 12.04, 12.2, 12.14, 11.87, 12.39, 12.39, 12.82, 13.11, 13.55, 13.55, 13.99, 13.99, 13.55, 13.11, 13.11, 13.72, 14.16, 14.14, 14.14, 14.14, 14.58, 14.55, 14.55, 14.55, 14.11, 14.11, 13.67, 13.67, 13.23, 13.23, 13.19, 13.19, 12.92, 12.93, 12.96, 12.96, 12.96, 12.93, 12.92, 12.92, 13.23, 12.94, 12.18, 12.04, 11.2, 11.2, 10.55, 9.67, 8.58, 7.4, 7.4, 6.18, 5.36, 3.91, 3.91, 3.09, 2.18, 1.4, -0.0, -0.0, -1.1, -2.26, -3.45, -3.49, -3.0, -1.01, -0.0, 1.14, 2.33, 3.52, 2.97, -0.0, 1.45, 4.8, 5.95, 6.86, 8.22, 9.34, 10.28, 10.91, 11.64, 17.72, 11.0, -21.01, -16.99, 0.0, 10.28, 8.93, 7.9, 10.6, 0.0, -4.8, -4.4, 0.0, 0.0, 0.0, 12.07, 12.07, 12.04, 11.71, 12.14, 11.87, 11.96, 12.63, 12.63, 13.11, 13.55, 13.55, 13.99, 13.55, 13.28, 13.28, 13.72, 13.72, 14.16, 14.14, 14.14, 14.14, 14.58, 14.55, 14.55, 14.11, 14.11, 13.67, 13.67, 13.67, 13.23, 13.23, 13.19, 13.36, 12.92, 12.93, 12.96, 12.52, 12.52, 12.92, 12.92, 12.92, 12.79, 12.51, 12.51, 12.04, 11.2, 11.2, 10.55, 9.67, 8.93, 7.74, 7.74, 6.18, 5.36, 5.1, 3.91, 3.09, 2.26, 1.4, 0.67, -0.0, -0.61, -1.63, -3.21, -4.12, -5.06, -3.45, -0.0, -0.0, 1.2, 2.46, 3.52, 2.83, 1.62, 2.39, 5.21, 6.86, 8.35, 8.73, 9.3, 10.9, 13.19, 21.89, -0.0, -21.01, -17.43, -0.0, -0.0, 2.49, 6.7, 9.97, 11.62, 0.0, -3.39, -2.83, -2.83, -2.83, 12.04, 12.04, 11.93, 11.71, 12.14, 12.2, 12.2, 12.63, 12.68, 13.11, 13.55, 13.55, 13.72, 13.72, 13.28, 13.28, 13.72, 13.72, 13.7, 14.14, 14.14, 14.14, 14.58, 14.55, 14.55, 14.11, 14.11, 13.81, 13.81, 13.23, 13.23, 13.23, 13.19, 13.36, 12.92, 12.48, 12.52, 12.52, 12.48, 12.47, 12.92, 12.92, 12.79, 12.58, 12.51, 12.18, 11.62, 11.2, 10.8, 10.16, 8.93, 8.23, 6.95, 6.64, 5.36, 5.1, 4.5, 3.6, 3.09, 2.26, 0.67, -0.0, -0.61, -1.2, -2.29, -3.47, -3.79, -3.15, -2.82, -0.0, -0.0, 1.4, 2.83, 2.97, -0.0, 1.22, 3.25, 6.15, 7.59, 7.97, 8.65, 10.29, 20.99, 21.59, -23.69, -19.84, -7.6, -0.0, 2.06, 3.68, 6.24, 8.75, 9.97, 11.62, 0.0, 0.0, 0.0, 0.0, 12.04, 12.04, 11.93, 11.71, 11.71, 12.2, 12.2, 12.63, 12.68, 13.11, 13.28, 13.28, 13.28, 13.28, 12.83, 13.28, 13.72, 13.72, 13.7, 14.14, 14.14, 14.14, 14.14, 14.11, 14.11, 14.26, 13.81, 13.81, 13.81, 13.36, 12.79, 13.23, 13.36, 13.36, 12.92, 12.52, 12.52, 12.48, 12.03, 12.48, 12.47, 12.47, 12.79, 12.58, 12.51, 11.76, 11.62, 11.62, 11.2, 10.4, 8.93, 8.55, 7.4, 6.64, 5.82, 5.1, 4.5, 4.26, 3.4, 2.4, 1.55, -0.0, -0.67, -0.61, -1.76, -2.77, -3.47, -3.49, -3.2, -1.49, -0.0, 1.67, 3.32, 1.54, -0.0, -1.54, 1.09, 4.99, 7.18, 7.9, 8.31, 9.62, 18.63, 25.53, 18.02, -19.4, -7.2, -0.0, 2.42, 4.8, 7.36, 9.08, 10.04, 10.79, 11.62, 0.0, 0.0, 0.0, 11.6, 11.6, 11.93, 11.71, 11.71, 11.76, 12.2, 12.63, 12.24, 12.83, 12.83, 12.83, 12.83, 12.83, 12.83, 13.28, 13.72, 13.72, 13.7, 13.7, 14.14, 14.14, 14.14, 14.26, 14.26, 14.26, 13.81, 13.81, 13.36, 13.36, 12.92, 13.36, 13.36, 13.36, 12.92, 12.47, 12.48, 12.48, 12.03, 12.03, 12.47, 12.35, 12.35, 12.14, 12.14, 12.08, 11.76, 11.62, 11.2, 10.4, 9.6, 8.55, 7.87, 7.13, 6.32, 5.53, 4.94, 4.26, 3.4, 2.67, 1.65, 0.79, -0.0, -0.71, -1.4, -1.65, -3.0, -3.47, -2.6, -1.49, -0.0, 1.67, 1.75, 1.75, -0.0, -2.28, -2.28, 3.45, 6.77, 7.59, 7.97, 11.53, 14.7, 24.37, 26.52, -19.19, -10.76, -0.0, 2.83, 5.69, 7.36, 8.73, 9.9, 10.58, 11.4, 0.0, 0.0, 0.0, 11.59, 11.59, 11.49, 11.91, 11.33, 11.76, 11.93, 12.37, 12.39, 12.39, 12.83, 12.83, 12.83, 12.83, 12.83, 13.28, 13.72, 13.7, 13.7, 13.7, 13.82, 14.26, 14.26, 14.26, 14.26, 13.81, 13.81, 13.36, 13.36, 13.36, 12.92, 13.36, 13.36, 12.91, 12.92, 12.47, 12.48, 12.07, 12.03, 12.03, 12.47, 12.35, 12.14, 12.14, 12.14, 12.14, 11.76, 11.76, 11.76, 10.4, 9.6, 8.55, 7.87, 7.51, 7.13, 5.82, 5.53, 4.94, 3.6, 3.4, 2.67, 0.79, -0.0, -0.79, -0.71, -1.32, -3.0, -3.22, -3.08, -2.82, -0.0, -0.0, -0.0, -0.0, -0.0, -0.0, -1.75, -0.0, 6.3, 7.27, 9.04, 10.87, 13.35, 19.45, 27.89, 21.59, -13.05, -3.1, 4.18, 6.31, 8.07, 8.73, 10.26, 11.09, 11.28, 8.22, 8.22, 8.22, 11.59, 11.59, 11.49, 11.49, 11.49, 11.93, 11.93, 11.95, 11.95, 12.39, 12.39, 12.83, 12.83, 12.93, 12.93, 13.38, 13.38, 13.82, 13.82, 13.82, 13.82, 14.26, 14.26, 14.26, 13.81, 13.81, 13.81, 13.36, 13.36, 12.92, 12.92, 13.36, 13.36, 12.91, 12.47, 12.47, 12.07, 12.07, 12.07, 12.03, 12.35, 12.35, 12.35, 11.71, 11.71, 11.71, 11.76, 11.76, 11.76, 10.92, 9.6, 8.99, 8.18, 7.87, 7.13, 6.79, 5.53, 4.68, 4.68, 3.77, 2.51, 1.73, -0.0, -0.0, -0.84, -1.55, -2.32, -3.04, -3.32, -2.99, -1.58, -0.0, -0.0, -1.67, -0.0, -0.0, -0.0, -0.0, 3.49, 7.81, 9.16, 10.23, 12.56, 18.05, 25.55, 22.05, -4.45, -4.81, 4.39, 7.59, 8.79, 9.81, 10.79, 11.95, 11.28, 11.28, 11.28, 11.28, 11.15, 11.15, 11.05, 11.49, 11.49, 11.49, 11.49, 11.95, 11.95, 12.48, 12.48, 12.93, 12.93, 12.93, 12.93, 13.38, 13.82, 13.37, 13.82, 13.82, 13.82, 14.26, 14.26, 14.26, 13.81, 13.81, 13.36, 13.36, 13.36, 12.92, 12.91, 13.36, 13.36, 12.91, 12.47, 12.47, 12.07, 12.07, 12.07, 12.03, 11.91, 11.91, 11.91, 11.91, 11.71, 11.71, 11.71, 11.34, 11.34, 10.5, 9.77, 9.2, 8.99, 8.34, 7.51, 7.13, 6.79, 5.69, 4.68, 4.42, 3.77, 2.99, 1.84, -0.0, -0.94, -0.89, -1.45, -3.0, -3.79, -3.55, -2.26, -1.67, -1.95, -1.95, -2.06, -0.0, -0.0, -0.0, 2.39, 7.9, 8.93, 10.4, 12.56, 16.7, 23.6, 21.52, 13.96, -0.0, 7.1, 9.77, 9.65, 10.43, 11.23, 11.84, 11.95, 12.07, 12.07, 12.07, 11.15, 11.15, 11.05, 11.05, 11.05, 11.49, 11.59, 12.04, 12.04, 12.48, 12.48, 12.48, 12.93, 12.93, 12.93, 13.37, 13.37, 13.37, 13.37, 13.82, 13.82, 13.81, 14.26, 14.26, 13.81, 13.36, 13.36, 13.36, 12.91, 12.91, 12.91, 13.36, 13.36, 12.91, 12.47, 12.52, 12.07, 12.07, 12.03, 12.03, 11.91, 11.91, 11.91, 11.91, 11.46, 11.28, 11.28, 11.45, 10.92, 10.08, 9.77, 9.2, 8.99, 8.99, 8.34, 7.51, 6.79, 6.45, 6.01, 5.15, 4.87, 3.77, 2.99, 1.14, -0.0, -1.07, -1.01, -2.82, -3.55, -3.77, -3.4, -2.17, -1.95, -2.83, -1.95, -2.06, -0.0, -0.0, -0.0, 5.9, 9.1, 10.32, 12.04, 15.77, 20.69, 21.37, 14.33, 9.77, 9.31, 11.21, 11.8, 11.09, 11.23, 11.86, 12.42, 12.07, 12.07, 12.07, 11.15, 11.15, 11.14, 11.14, 11.14, 11.59, 11.59, 12.04, 12.04, 12.48, 12.48, 12.48, 12.96, 12.96, 12.93, 13.37, 13.37, 13.37, 13.37, 13.82, 13.82, 13.81, 13.81, 13.81, 13.81, 13.36, 13.36, 13.36, 12.91, 12.91, 12.91, 13.36, 12.91, 12.47, 12.47, 12.52, 12.07, 12.03, 11.59, 11.58, 12.03, 12.03, 11.46, 11.46, 11.02, 10.84, 10.84, 10.84, 10.6, 10.08, 9.36, 9.2, 9.2, 8.99, 8.6, 8.34, 7.96, 6.79, 6.45, 5.69, 5.69, 5.15, 4.46, 3.6, 1.32, -0.0, -0.0, -1.25, -3.4, -3.4, -3.4, -2.26, -2.12, -2.83, -1.95, -2.06, -0.0, -0.0, -0.0, 4.4, 8.55, 10.17, 10.95, 13.91, 17.55, 19.4, 15.25, 11.69, 10.43, 12.29, 12.94, 13.19, 12.56, 11.75, 11.98, 12.07, 12.07, 12.07, 11.15, 11.15, 11.14, 11.14, 11.14, 11.59, 11.59, 12.04, 12.04, 12.48, 12.48, 12.48, 12.96, 12.96, 12.93, 13.37, 13.37, 13.37, 13.37, 13.82, 13.82, 13.81, 13.81, 13.81, 13.81, 13.36, 13.36, 13.36, 12.91, 12.91, 12.91, 13.36, 12.91, 12.47, 12.47, 12.52, 12.07, 12.03, 11.59, 11.58, 12.03, 12.03, 11.46, 11.46, 11.02, 10.84, 10.84, 10.84, 10.6, 10.08, 9.36, 9.2, 9.2, 8.99, 8.6, 8.34, 7.96, 6.79, 6.45, 5.69, 5.69, 5.15, 4.46, 3.6, 1.32, -0.0, -0.0, -1.25, -3.4, -3.4, -3.4, -2.26, -2.12, -2.83, -1.95, -2.06, -0.0, -0.0, -0.0, 4.4, 8.55, 9.8, 10.73, 12.04, 14.3, 16.41, 15.02, 11.86, 10.75, 11.76, 12.86, 13.8, 13.99, 13.39, 11.66, 11.11, 11.11, 11.11]}, {"header": {"dx": 0.06612293990616946, "dy": 0.0552356325346848, "nx": 98, "ny": 59, "la1": 35.046912555036876, "la2": 31.78801023549047, "lo1": -121.43107172385933, "lo2": -114.95102361305473, "refTime": "2026041109", "parameterCategory": 1, "parameterNumber": 3}, "data": [7.95, 8.66, 8.66, 9.57, 10.12, 10.94, 11.53, 13.28, 13.7, 14.47, 13.8, 12.0, 12.07, 11.18, 10.28, 10.41, 10.84, 9.97, 10.73, 11.18, 10.84, 10.4, 9.2, 9.6, 11.03, 11.71, 11.71, 11.62, 11.62, 10.04, 6.94, 3.96, -0.0, -0.0, 0.0, 0.0, -2.26, -1.49, -1.49, 0.0, 0.0, 2.19, 0.0, 0.0, 0.0, 0.0, 0.0, 0.0, 0.0, 7.4, 10.47, 11.88, 11.53, 11.17, 11.17, 10.82, 9.48, 9.48, 8.31, 6.2, 5.15, 4.38, 4.71, 4.71, 6.0, 6.0, 4.38, 4.24, 3.1, 3.07, 3.33, 3.78, 2.34, 0.0, -4.95, -8.18, -6.2, -7.78, -13.86, -10.8, -9.97, -9.96, -9.33, -8.6, -9.11, -9.39, -8.49, -8.41, -8.0, -8.15, -8.02, -8.37, -8.21, -7.19, -7.19, -6.53, -5.2, -3.39, 7.95, 7.95, 8.66, 8.66, 10.12, 10.69, 11.9, 12.5, 13.7, 14.47, 13.19, 13.31, 11.62, 10.73, 11.62, 10.84, 10.08, 11.03, 11.18, 10.28, 12.07, 11.4, 10.79, 10.8, 10.41, 10.6, 11.03, 11.18, 11.18, 11.62, 13.44, 10.75, 6.4, -0.0, -0.0, -7.6, -3.6, -2.69, -2.06, 0.0, 0.0, 0.0, 0.0, -2.81, -4.01, -5.04, -2.78, 0.0, 7.4, 11.09, 10.47, 10.82, 10.82, 9.8, 9.8, 9.8, 9.8, 8.31, 8.31, 6.2, 5.15, 6.0, 5.8, 7.19, 6.65, 5.63, 5.15, 3.98, 3.1, 1.73, 3.69, 3.88, 4.79, 2.65, 0.0, -4.66, -6.2, -7.78, -13.86, -10.8, -9.97, -9.96, -9.33, -8.6, -9.11, -9.39, -8.49, -8.41, -8.0, -8.15, -8.02, -8.37, -8.21, -7.19, -7.19, -6.53, -5.2, -3.39, 7.95, 7.95, 8.66, 8.66, 10.12, 11.03, 11.64, 12.9, 13.89, 14.13, 12.27, 10.68, 12.07, 11.62, 10.52, 10.52, 10.38, 10.79, 10.6, 12.07, 10.73, 11.18, 10.84, 12.04, 11.5, 8.58, 10.18, 10.28, 10.41, 11.62, 12.96, 14.75, 15.69, 9.8, 0.0, 0.0, 0.0, 0.0, -2.39, -2.6, 0.0, -4.38, -5.09, -6.64, -8.8, -7.75, -3.23, 4.01, 10.12, 10.37, 10.73, 9.8, 9.8, 8.31, 9.17, 9.48, 8.05, 8.31, 6.2, 6.2, 6.0, 9.48, 9.17, 8.3, 7.79, 8.46, 8.16, 7.43, 5.15, 2.15, 0.0, 0.0, 2.16, 2.4, 0.0, -2.89, -5.31, -9.8, -12.39, -8.22, -8.38, -8.43, -8.91, -8.22, -9.11, -10.22, -9.39, -8.94, -8.63, -9.53, -9.8, -9.32, -9.02, -9.02, -7.62, -5.64, -2.1, 1.93, 7.13, 7.95, 8.2, 8.66, 10.12, 10.43, 11.36, 12.65, 13.29, 13.57, 12.27, 10.68, 11.91, 11.18, 11.18, 10.96, 10.79, 10.8, 11.03, 11.62, 10.73, 10.73, 11.62, 10.4, 10.35, 10.01, 9.2, 9.83, 9.97, 10.96, 12.07, 12.96, 12.45, 11.53, 7.44, 8.53, 6.94, 3.82, -2.82, -6.0, -7.2, -9.66, -9.89, -8.2, -4.79, -2.72, 0.0, 7.51, 10.01, 9.17, 9.17, 8.05, 8.05, 6.0, 7.44, 9.17, 7.44, 6.0, 6.2, 6.2, 9.48, 11.6, 10.73, 9.48, 10.12, 11.63, 11.18, 10.33, 9.67, 6.4, 0.0, -4.12, -4.12, 0.0, 0.0, -2.89, -5.15, -9.48, -12.52, -9.17, -7.56, -8.43, -8.72, -9.2, -9.86, -10.32, -10.73, -9.39, -10.21, -11.57, -11.25, -9.8, -9.17, -8.02, -5.52, 0.0, 3.98, 4.32, 6.64, 7.13, 8.2, 8.2, 9.5, 10.43, 11.36, 12.0, 13.29, 13.07, 11.99, 10.52, 11.46, 11.18, 10.73, 11.28, 10.79, 10.8, 10.8, 11.71, 12.52, 11.18, 10.73, 11.45, 10.84, 11.71, 11.21, 11.28, 11.62, 10.08, 10.41, 11.18, 11.28, 9.67, 8.22, 7.9, 8.22, 5.8, 0.0, -6.81, -8.6, -6.47, -2.98, 0.0, 0.0, 3.82, 6.21, 7.51, 9.17, 9.17, 7.78, 7.78, 5.8, 7.19, 7.19, 8.05, 6.0, 3.25, 3.36, 7.44, 10.79, 11.6, 10.37, 12.03, 12.65, 13.39, 13.05, 12.81, 12.96, 11.86, 9.49, 6.31, 0.0, 3.59, 2.53, 0.0, -9.8, -12.96, -11.8, -9.02, -6.95, -8.18, -8.43, -8.03, -9.09, -10.27, -11.18, -10.47, -12.21, -12.27, -10.3, -8.85, -8.53, -6.17, 7.81, 8.23, 4.32, 4.48, 5.73, 7.13, 7.36, 8.2, 9.5, 9.8, 11.36, 12.0, 12.65, 12.5, 11.45, 10.47, 11.02, 10.73, 11.18, 10.84, 11.28, 10.8, 8.53, 10.41, 10.41, 12.07, 12.96, 12.71, 12.14, 12.27, 11.87, 12.3, 12.27, 12.07, 9.83, 9.83, 10.28, 10.04, 9.48, 7.54, 7.54, 5.46, 0.0, 0.0, 0.0, 0.0, 5.6, 4.65, 5.6, 5.99, 5.2, 5.6, 6.94, 8.85, 5.4, 5.6, 3.96, 7.19, 6.0, 4.98, 3.14, 3.25, 3.25, 7.44, 11.87, 11.71, 13.32, 13.7, 13.86, 13.58, 13.59, 13.82, 14.19, 14.32, 12.84, 11.13, 13.24, 11.06, 10.25, 8.43, -15.2, -8.31, -7.51, -7.82, -7.27, -8.15, -8.24, -8.24, -9.48, -11.13, -11.62, -13.88, -13.59, -12.56, -10.41, -9.36, -7.9, 8.94, 9.83, 6.97, 1.98, 2.06, 5.73, 6.2, 7.13, 8.2, 9.06, 10.1, 10.75, 11.36, 12.65, 11.72, 10.21, 9.75, 9.55, 9.97, 11.62, 10.6, 11.45, 10.41, 6.94, 5.6, -0.0, 6.4, 10.43, 15.2, 14.75, 14.03, 14.9, 13.28, 12.45, 9.58, 10.18, 8.91, 9.33, 7.27, 8.22, 8.87, 7.58, 5.46, 3.25, 9.48, 14.3, 12.96, 11.16, 9.48, 9.8, 6.21, 3.96, 3.14, 5.6, 8.85, 6.94, 6.7, 4.1, 4.1, 4.1, 0.0, 0.0, 0.0, 0.0, 11.2, 11.71, 12.83, 13.53, 13.7, 13.48, 14.07, 13.92, 13.74, 12.52, 13.12, 12.08, 10.61, 10.52, 10.98, 7.4, 6.53, 11.38, -5.48, -6.9, -9.17, -8.59, -9.66, -9.67, -9.67, -10.79, -11.05, -14.3, -15.43, -13.86, -11.99, -10.6, -9.86, 0.0, 9.83, 10.84, 4.48, 2.06, 4.81, 5.55, 6.2, 7.36, 7.59, 9.33, 10.1, 10.1, 11.36, 11.64, 10.99, 9.8, 8.91, 9.55, 10.96, 12.52, 11.18, 12.07, 12.3, 9.17, -0.0, -0.0, -0.0, -0.0, 4.95, 11.06, 14.75, 15.2, 13.99, 13.19, 11.16, 10.8, 10.8, 11.2, 8.85, 6.98, 5.6, 3.14, 2.33, 3.39, 6.45, 12.96, 13.86, 16.09, 12.33, 7.2, 2.2, 1.77, 7.78, 10.79, 9.48, 6.45, 3.82, 3.96, 3.04, 3.04, 0.0, 0.0, 0.0, 0.0, 11.62, 11.18, 12.96, 13.77, 12.98, 11.9, 11.68, 12.22, 10.89, 10.33, 7.78, 8.58, 7.99, 6.29, 3.59, 1.56, 1.17, 3.9, -0.0, -7.13, -9.17, -10.35, -10.04, -10.2, -10.73, -11.76, -12.93, -13.86, -14.11, -12.85, -11.72, -11.45, -10.4, 11.62, 11.84, 8.53, 2.37, 2.13, 4.81, 4.74, 6.4, 6.4, 7.59, 9.33, 9.33, 10.1, 10.75, 10.77, 10.01, 9.1, 9.63, 12.58, 12.3, 12.27, 12.14, 12.96, 12.96, 13.41, 11.6, 13.41, 0.0, 9.48, 6.4, -0.0, 0.0, 0.0, 0.0, 15.65, 11.53, 11.53, 13.59, 10.75, 7.69, 4.48, 2.82, 0.0, 0.0, 2.02, 2.6, 8.85, 12.79, 10.12, 0.0, -2.93, -1.64, 6.0, 12.87, 12.33, 10.73, 9.8, 0.0, 0.0, 0.0, 0.0, 0.0, 0.0, 0.0, 0.0, 11.62, 12.07, 13.41, 12.46, 10.47, 8.31, 8.58, 8.05, 6.54, 5.5, 4.42, 3.9, 5.07, 2.72, 0.0, -1.58, -1.83, 0.0, -0.0, -8.31, -11.7, -12.52, -10.87, -10.8, -10.92, -11.46, -12.07, -12.52, -12.96, -11.62, -12.07, 0.0, 12.07, 11.62, 11.87, 5.6, 1.98, 2.2, 3.96, 4.89, 5.31, 6.6, 7.59, 8.43, 9.33, 9.33, 10.75, 10.12, 9.42, 9.86, 10.48, 11.09, 12.74, 12.87, 13.15, 13.88, 14.75, 14.3, 12.96, 12.52, 12.96, 13.86, 0.0, 0.0, 0.0, 0.0, -0.0, 0.0, 10.12, 4.52, 0.0, 0.0, 0.0, 0.0, 2.1, 0.0, 0.0, 2.82, 5.8, 7.78, 7.19, 0.0, -2.1, -4.23, -1.91, 11.21, 12.86, 12.56, 10.3, 10.12, 9.17, 3.82, -5.2, -7.9, -6.2, -5.2, -7.9, 11.62, 11.18, 12.96, 13.75, 13.19, 9.48, 9.8, 0.0, -2.89, -1.47, 0.0, 0.0, 0.0, 1.04, 1.23, 0.0, 0.0, 0.0, -12.96, -8.85, -8.1, -10.43, -13.95, -15.61, -12.3, -12.14, -11.95, -11.62, -11.62, -8.22, 0.0, 11.62, 11.62, 10.6, 11.03, 8.85, 5.6, 2.06, 2.28, 1.91, 4.89, 5.31, 6.6, 6.6, 8.18, 9.33, 9.33, 9.71, 9.8, 9.42, 9.5, 10.55, 11.16, 12.39, 12.79, 13.88, 15.61, 14.99, 15.2, 16.09, 17.43, 0.0, 0.0, 0.0, 0.0, 0.0, 0.0, 0.0, 0.0, 0.0, 0.0, -4.1, -8.22, -11.62, -8.22, 0.0, 0.0, 0.0, 5.2, 7.13, 5.31, 3.25, 0.0, -2.28, -2.1, 6.44, 11.06, 11.02, 10.79, 10.4, 11.33, 12.04, 12.3, 11.2, 0.0, -11.62, -11.62, -11.28, 8.22, 11.62, 13.8, 13.7, 12.74, 12.27, 10.12, 5.31, -2.02, -7.34, -8.51, -6.64, -5.5, -3.47, -1.23, 0.0, 0.0, 0.0, -9.17, -9.48, -7.59, -7.82, -9.39, -16.05, -15.65, -14.3, -12.39, 4.1, 5.4, 7.24, 6.45, 6.45, 8.22, 5.0, 8.85, 5.8, 2.45, 0.0, 0.0, 0.0, 3.76, 4.89, 6.4, 6.6, 8.18, 8.18, 9.33, 9.71, 9.13, 8.54, 9.17, 10.18, 10.99, 11.17, 11.5, 11.62, 11.62, 13.28, 15.18, 16.99, 0.0, 0.0, -11.06, 0.0, 0.0, 0.0, 0.0, 0.0, 0.0, -2.83, 0.0, 0.0, 0.0, -4.2, -7.27, -3.82, 0.0, 2.28, 5.4, 6.0, 6.2, 4.38, 1.77, 0.0, 3.82, 9.11, 11.62, 11.62, 11.91, 12.04, 12.63, 14.03, 15.09, 15.54, 14.14, 13.15, 14.99, -0.0, 3.39, 12.0, 14.14, 13.37, 13.15, 13.75, 13.07, 12.82, 12.46, 7.98, -6.4, -8.66, -5.81, -5.81, -5.28, 0.0, 4.24, -0.0, -7.44, -8.85, -3.69, -0.0, -3.58, -10.43, 0.0, 0.0, 11.38, 11.7, 8.43, 6.0, 6.67, 6.44, 3.82, 0.0, 0.0, 0.0, 0.0, 0.0, 0.0, 0.0, 3.76, 4.89, 5.31, 6.6, 8.18, 8.18, 9.06, 9.42, 9.42, 8.83, 9.48, 9.8, 10.12, 10.43, 10.75, 11.87, 11.09, 10.37, 10.01, 12.3, 13.41, 0.0, -9.17, -5.8, 0.0, 0.0, 0.0, 0.0, 0.0, 0.0, 0.0, 0.0, 0.0, 0.0, -2.49, 0.0, 0.0, 5.0, 5.0, 4.58, 6.21, 5.8, 4.75, 5.95, 8.8, 10.65, 11.62, 12.07, 11.95, 12.39, 11.59, 12.52, 13.41, 14.3, 16.04, 16.55, 15.46, 13.46, 11.84, 11.4, 13.41, 13.01, 13.09, 13.34, 13.74, 14.21, 16.89, 16.29, 14.79, 14.52, 14.65, 13.74, 0.0, -0.0, 8.22, -0.0, -7.0, -5.23, -0.0, 11.06, 10.75, 0.0, 0.0, 15.2, 15.36, 12.57, 8.93, 8.18, 9.16, 8.31, 5.63, 0.0, -12.07, -8.53, -2.93, 0.0, 0.0, 0.0, 3.76, 4.89, 5.31, 6.4, 7.59, 8.18, 9.06, 8.78, 9.42, 9.13, 9.13, 10.12, 9.6, 10.75, 10.02, 11.38, 11.06, 12.16, 10.43, 10.12, 10.12, 0.0, -10.43, -6.6, -3.69, -2.28, 0.0, 0.0, 0.0, 0.0, 0.0, 0.0, 0.0, 0.0, 0.0, 0.0, 1.33, 4.6, 4.6, 4.8, 4.4, 5.54, 5.75, 8.73, 9.04, 9.97, 9.16, 10.73, 11.18, 11.62, 11.62, 11.18, 11.06, 11.62, 11.62, 11.0, 12.79, 14.33, 14.39, 11.62, 12.93, 14.22, 14.75, 14.75, 13.86, 14.66, 14.93, 16.87, 17.77, 14.64, 17.41, 20.46, 15.59, -0.0, -0.0, -0.0, -4.23, -0.0, 16.09, 11.38, 11.06, 4.81, 6.6, 14.3, 14.75, 13.03, 10.43, 8.73, 8.85, 7.69, 6.4, 2.13, -8.22, -12.07, -5.2, 0.0, 0.0, 0.0, 3.76, 3.76, 5.31, 6.4, 7.36, 8.18, 9.06, 9.06, 8.78, 9.42, 9.42, 9.42, 9.6, 9.89, 9.35, 10.59, 11.38, 11.38, 9.39, 9.39, 5.64, 3.69, 0.0, 0.0, -3.79, -3.07, -2.21, -1.63, 0.0, 0.0, 0.0, -1.01, 0.0, 0.0, 0.0, 0.0, 2.02, 2.97, 4.15, 3.87, 2.95, 3.68, 4.15, 6.44, 8.05, 8.91, 9.46, 9.74, 9.83, 10.28, 10.73, 10.28, 10.28, 8.49, 8.49, 9.21, 8.82, 10.43, 13.99, 14.66, 12.07, 12.96, 13.77, 14.23, 14.75, 14.69, 15.14, 13.8, 11.6, 10.99, 11.8, 13.61, 16.17, 7.59, -8.85, -9.17, -0.0, 16.09, 11.06, 8.43, 7.59, 5.31, 2.72, 11.16, 12.52, 14.3, 12.39, 10.01, 8.53, 8.1, 6.78, 4.58, 0.0, 0.0, 0.0, 8.85, 9.17, 9.17, 3.76, 3.76, 5.31, 6.4, 7.36, 7.36, 7.93, 9.06, 9.06, 8.78, 9.42, 8.85, 8.85, 9.12, 10.47, 9.61, 10.3, 10.33, 9.92, 9.66, 8.05, 4.95, 2.57, 0.0, 0.0, 0.0, -2.21, -1.94, 0.0, 0.0, 0.0, -1.15, -1.0, 0.0, 0.0, 0.0, 1.33, 2.7, 2.19, 1.76, 2.82, 2.95, 3.98, 5.9, 7.51, 8.3, 8.48, 8.85, 8.94, 9.26, 9.7, 9.39, 9.83, 9.39, 8.94, 8.94, 9.21, 9.75, 11.5, 12.46, 11.18, 11.51, 10.68, 11.3, 11.51, 12.07, 11.18, 12.14, 10.61, 10.23, 9.08, 8.94, 8.99, 10.46, 1.78, 0.0, 3.79, 3.58, 3.58, 2.81, 3.47, 3.01, 3.04, 4.48, 11.28, 10.96, 12.52, 10.48, 9.42, 7.18, 5.28, 2.52, 2.71, 5.0, 2.82, 8.53, 11.6, 11.6, 3.76, 3.76, 5.31, 6.2, 6.4, 7.36, 7.93, 8.18, 8.18, 8.18, 8.18, 8.85, 8.85, 9.12, 9.39, 8.53, 9.09, 9.17, 10.33, 8.51, 5.09, 4.42, 4.42, 2.57, 0.0, 0.0, -2.21, -1.94, -1.73, -1.46, -1.42, -1.3, -1.23, 0.0, 0.0, 0.0, 1.26, 2.02, 2.02, 2.02, 2.1, 2.97, 3.65, 4.83, 7.15, 7.67, 8.48, 8.48, 8.82, 8.94, 8.67, 8.94, 9.39, 9.83, 9.83, 9.83, 9.54, 8.18, 7.59, 9.3, 11.4, 10.73, 9.2, 9.2, 9.2, 9.03, 9.7, 9.83, 10.4, 10.36, 7.95, 5.5, 5.04, 6.55, 8.76, 8.87, 8.2, 7.4, 5.51, 3.59, 1.73, 0.0, 0.0, 2.63, 11.87, 10.41, 10.73, 9.77, 6.08, 3.44, 3.17, 2.82, 1.84, 2.37, 4.65, 8.53, 12.3, 12.3, 2.56, 3.76, 4.89, 6.2, 6.2, 7.36, 7.36, 7.36, 8.18, 8.18, 8.18, 8.18, 8.85, 9.12, 9.12, 7.82, 8.83, 8.93, 9.17, 8.28, 4.95, 2.57, 2.5, 2.09, 0.0, 0.0, -2.57, -2.21, -2.0, -3.59, -1.65, -1.5, -1.37, -1.23, 0.0, 0.0, 0.0, 0.0, 0.0, 2.49, 0.0, 2.69, 2.54, 4.71, 5.36, 6.98, 7.67, 7.67, 8.3, 8.77, 8.94, 8.94, 8.94, 8.94, 9.39, 9.39, 9.33, 8.18, 8.55, 8.93, 10.84, 11.18, 9.96, 8.82, 8.82, 8.0, 6.9, 8.24, 8.8, 5.2, 4.95, 4.15, 3.77, 4.88, 6.97, 9.67, 10.38, 10.58, 8.65, 6.3, 3.42, 0.0, 0.0, 9.17, 5.0, 0.0, 0.0, 5.4, 2.93, 2.06, 2.37, 2.82, 1.84, 0.0, 5.6, 8.85, 10.41, 10.41, 2.56, 3.76, 4.74, 6.2, 6.2, 7.13, 7.36, 7.36, 7.59, 8.18, 8.18, 8.18, 8.18, 8.18, 7.82, 8.93, 7.58, 9.09, 7.76, 6.8, 2.5, 0.0, 2.89, 3.07, 0.0, 0.0, 0.0, -4.01, -3.42, -1.83, -1.73, -1.6, -1.5, 0.0, 0.0, 0.0, 0.0, 0.0, 0.0, 0.0, 0.0, 0.0, 0.0, 1.75, 4.83, 5.86, 7.33, 6.98, 8.3, 8.77, 9.21, 8.94, 9.39, 8.94, 9.39, 8.91, 9.33, 9.2, 8.93, 8.93, 10.73, 10.52, 10.6, 9.13, 8.8, 7.44, 6.9, 7.6, 0.0, 0.0, 0.0, 2.34, 3.5, 4.56, 4.84, 4.47, 3.79, 4.54, 7.0, 8.51, 5.0, 0.0, -4.52, -0.0, -0.0, -8.22, -11.62, -7.9, 0.0, 0.0, 1.09, 2.53, 0.0, 5.4, 12.72, 10.37, 7.78, 7.78, 2.56, 3.76, 4.74, 4.74, 6.2, 7.13, 7.36, 7.36, 7.59, 7.59, 7.59, 8.18, 8.18, 7.16, 7.16, 6.95, 7.82, 7.58, 7.0, 5.64, 4.01, 3.79, 2.98, 0.0, 2.65, 3.24, 0.0, 0.0, 0.0, 0.0, -1.78, 0.0, 0.0, 0.0, 0.0, 0.0, 0.0, -0.76, -0.62, -0.56, 0.0, 0.0, 0.64, 0.69, 2.83, 5.7, 6.64, 7.33, 8.72, 8.77, 8.94, 8.94, 8.94, 8.94, 8.33, 8.77, 9.97, 8.4, 7.27, 9.3, 10.73, 9.55, 9.96, 9.55, 8.0, 7.67, 8.0, 9.39, 0.0, -2.82, -1.21, -1.27, -1.16, 0.0, 0.0, -1.24, -4.23, -3.79, 2.45, 5.06, 6.22, 0.0, -5.64, -2.13, -0.0, -3.53, -7.27, -10.28, -4.15, -3.39, -1.5, 0.0, 0.0, 11.6, 12.96, 11.09, 8.05, 8.05, 2.48, 3.76, 4.74, 4.74, 5.73, 6.2, 7.36, 7.36, 7.59, 7.59, 7.59, 7.59, 8.18, 7.16, 7.38, 7.38, 7.38, 5.63, 5.8, 6.8, 5.37, 5.09, 2.65, 2.15, 1.68, 1.73, 1.68, 0.0, 0.0, 0.0, 0.0, 0.0, 0.0, 0.0, 0.0, 0.0, 0.0, -0.83, -0.71, -0.56, 0.0, 0.0, 0.65, 0.7, 2.76, 5.32, 6.64, 7.33, 8.72, 8.94, 8.94, 8.94, 8.94, 8.94, 9.21, 8.3, 8.05, 6.95, 7.59, 9.75, 10.28, 9.55, 8.23, 8.23, 7.67, 7.51, 9.33, 10.73, 6.97, 3.32, 2.32, 1.08, -2.33, -6.55, -6.1, -6.47, -10.59, -9.17, -5.26, 0.0, 4.34, 5.52, 0.0, -2.72, -0.0, -0.0, -0.0, -10.28, -5.95, -5.29, -5.2, -2.54, 0.0, 9.17, 13.41, 9.48, 4.81, 4.81, 2.48, 3.65, 4.74, 4.74, 5.73, 5.73, 6.64, 7.36, 7.59, 7.59, 7.59, 7.59, 6.6, 6.6, 6.6, 7.38, 6.17, 5.81, 5.63, 4.66, 5.09, 5.65, 3.79, 1.73, 1.65, 0.0, 0.0, 0.0, 0.0, 0.0, 0.0, -1.5, -1.37, 0.0, 0.0, 0.0, 0.0, 0.0, 0.0, 0.0, 0.0, 0.62, 0.67, 0.67, 2.63, 4.05, 6.3, 6.95, 9.21, 8.94, 8.49, 8.49, 8.94, 8.94, 9.21, 9.21, 8.4, 8.23, 9.2, 9.83, 9.21, 9.13, 8.05, 7.51, 7.51, 8.18, 8.18, 10.73, 11.46, 12.72, 11.28, 11.06, 8.2, -5.94, -8.53, -8.83, -12.7, -13.84, -12.33, -8.11, 0.0, 3.98, 4.67, 2.81, 0.0, 12.07, 0.0, -5.2, -6.21, -6.44, -4.75, -1.61, 0.0, 6.0, 9.17, 5.8, 2.54, 2.54, 2.28, 2.28, 3.36, 4.74, 5.73, 5.73, 6.64, 6.85, 7.59, 7.59, 7.82, 7.82, 6.6, 6.6, 6.6, 6.8, 5.64, 5.48, 5.31, 4.66, 5.09, 4.95, 3.2, 1.68, 1.6, 1.54, 0.0, 0.0, 0.0, 0.0, 0.0, 0.0, -1.34, -1.34, 0.0, 0.0, 0.0, 0.0, 0.0, 0.0, 0.65, 0.62, 0.67, 1.36, 2.69, 4.05, 5.46, 7.51, 8.33, 7.89, 8.33, 8.33, 8.33, 8.94, 8.77, 9.21, 8.63, 8.8, 9.6, 6.01, 7.15, 8.91, 8.48, 8.4, 8.8, 9.2, 8.55, 9.2, 10.38, 11.53, 12.86, 11.52, 8.51, -14.13, -8.93, -7.44, -10.41, -13.29, -14.91, -14.33, -8.68, 0.0, 3.47, 3.47, 3.53, 3.96, 0.0, -2.54, 0.0, 2.54, 0.0, 3.04, 4.55, 4.81, 3.14, 0.0, 0.0, 0.0, 2.28, 2.28, 3.36, 4.38, 5.33, 5.73, 5.73, 6.85, 7.06, 7.06, 7.28, 7.28, 6.29, 6.6, 6.8, 6.8, 5.64, 5.48, 5.48, 5.48, 4.95, 5.09, 3.3, 2.81, 1.47, 1.46, 1.54, 1.58, 1.73, 1.65, 0.0, 0.0, 0.0, 0.0, 0.0, 0.0, 0.0, 0.0, 0.86, 0.71, 0.68, 0.68, 0.7, 1.36, 2.54, 4.08, 4.88, 6.64, 7.6, 7.63, 8.38, 8.33, 8.33, 8.33, 8.33, 8.77, 8.06, 8.63, 9.6, 9.83, 5.69, 6.79, 9.21, 9.64, 9.54, 9.2, 9.97, 10.6, 9.2, 8.23, 10.28, 6.01, 8.8, 6.93, -12.64, -14.3, -9.3, -9.97, -13.39, -14.42, -14.65, -8.85, -2.18, 0.0, 1.02, 0.0, 0.0, 0.0, 8.05, 10.47, 5.6, 6.4, 5.8, 4.39, 0.0, 0.0, 0.0, 0.0, 2.28, 2.28, 3.36, 4.38, 4.24, 5.16, 5.73, 5.92, 6.85, 7.06, 7.28, 6.29, 6.29, 6.29, 6.29, 6.29, 5.04, 5.04, 5.04, 5.64, 4.5, 4.75, 3.24, 3.07, 2.89, 1.38, 1.37, 1.54, 3.04, 1.69, 1.65, 0.0, 0.0, 0.0, 0.0, 0.0, 0.0, 1.05, 0.89, 0.76, 0.68, 0.65, 0.67, 1.43, 2.69, 3.4, 4.05, 4.73, 5.69, 7.06, 7.63, 9.46, 7.94, 7.89, 8.33, 8.24, 8.48, 8.05, 9.64, 9.64, 9.83, 7.07, 8.67, 9.83, 9.21, 9.64, 10.08, 10.28, 10.08, 10.28, 1.84, 3.09, 8.42, 11.2, 8.08, 0.0, -16.48, -14.94, -12.87, -11.35, -14.31, -13.34, -9.49, -5.62, -2.43, 0.0, 4.98, 10.37, 12.45, 12.39, 11.9, 7.68, 6.0, 4.71, 2.37, 0.0, 0.0, 0.0, 2.28, 2.28, 3.25, 3.25, 4.24, 4.24, 5.33, 5.92, 6.1, 7.06, 6.1, 6.29, 6.29, 6.47, 6.47, 6.29, 5.04, 5.04, 5.04, 5.19, 4.12, 4.75, 3.33, 3.24, 3.16, 2.72, 1.3, 2.72, 3.04, 3.04, 3.04, 1.5, 1.37, 0.0, 0.0, 0.0, 1.08, 1.08, 0.99, 0.8, 1.36, 0.68, 0.65, 1.43, 2.83, 3.6, 4.05, 4.05, 5.38, 7.17, 8.12, 7.37, 8.85, 7.5, 7.89, 7.6, 8.06, 8.49, 8.82, 9.7, 9.13, 9.97, 8.49, 8.77, 8.94, 9.83, 10.28, 10.73, 10.08, 7.27, 3.39, 3.47, 7.6, 12.3, 14.29, 11.56, -3.23, -19.22, -16.09, -11.62, -13.41, -14.61, -12.73, -9.12, -3.68, 2.72, 11.5, 12.45, 12.45, 12.89, 12.79, 8.67, 6.85, 5.31, 4.1, 3.04, 2.93, 2.93, 2.2, 2.2, 3.25, 3.25, 4.24, 4.38, 5.33, 5.5, 6.1, 6.1, 6.1, 6.29, 6.29, 6.47, 6.47, 6.29, 5.04, 5.04, 5.04, 5.19, 4.12, 4.23, 4.75, 3.33, 2.96, 2.88, 2.57, 2.65, 2.72, 2.96, 2.96, 2.88, 2.88, 1.37, 1.27, 1.23, 1.11, 1.11, 2.15, 1.96, 1.64, 1.45, 1.39, 1.33, 2.83, 3.8, 4.28, 4.05, 5.03, 6.79, 7.63, 7.81, 6.9, 6.85, 6.7, 6.57, 8.33, 8.05, 7.97, 8.05, 9.13, 8.63, 10.28, 8.41, 10.28, 9.39, 10.28, 10.28, 10.52, 7.59, 4.4, 2.62, 4.66, 9.67, 13.45, 15.7, 11.33, -16.79, -4.01, 6.7, 12.52, 14.3, -10.75, -6.4, 0.0, 9.8, 12.65, 12.39, 11.99, 12.3, 11.92, 9.48, 7.69, 7.06, 7.36, 5.63, 3.68, 3.68, 2.04, 2.04, 3.02, 3.02, 3.94, 4.08, 5.33, 5.5, 5.67, 6.1, 6.1, 6.29, 5.85, 6.02, 6.02, 6.47, 5.04, 5.04, 5.19, 5.35, 5.35, 4.23, 4.35, 2.96, 2.96, 2.96, 2.65, 2.57, 2.57, 2.65, 2.88, 2.88, 2.88, 2.65, 2.65, 1.23, 1.15, 2.21, 2.21, 2.09, 1.83, 1.52, 1.97, 2.76, 3.88, 3.88, 3.88, 4.56, 5.35, 6.67, 7.81, 7.92, 7.33, 7.28, 6.72, 7.21, 7.21, 8.05, 7.6, 8.05, 7.74, 8.63, 9.83, 8.94, 9.39, 10.73, 10.28, -0.0, 10.28, 5.0, 3.68, 0.0, -2.13, 0.0, 6.53, 7.3, 9.9, 6.64, 0.0, 3.68, 10.52, 11.18, 12.07, 14.3, 13.41, 13.44, 13.15, 13.39, 12.39, 11.26, 10.73, 9.17, 7.44, 7.98, 8.46, 7.76, 6.56, 6.56, 2.04, 2.04, 3.02, 3.02, 3.94, 4.08, 5.33, 5.5, 5.67, 5.67, 5.67, 5.85, 5.85, 6.02, 6.02, 6.02, 5.85, 4.66, 4.81, 4.95, 4.95, 4.12, 4.23, 4.35, 2.96, 2.96, 2.65, 2.57, 2.57, 2.57, 3.9, 4.23, 2.88, 2.88, 2.65, 2.45, 2.45, 2.28, 2.21, 2.21, 1.96, 1.58, 2.11, 3.11, 3.99, 3.7, 3.65, 6.17, 8.05, 7.21, 7.37, 7.92, 7.45, 6.47, 6.94, 7.4, 8.43, 7.97, 7.15, 7.6, 7.74, 8.6, 9.39, 9.39, 9.83, 10.28, 10.73, 0.0, -8.4, -7.27, 1.64, 2.72, -2.45, -11.5, -9.31, -4.12, 0.85, 6.01, 4.79, 0.0, -0.0, 8.91, 10.6, 9.96, 12.72, 12.89, 13.01, 13.15, 11.64, 10.52, 9.96, 9.17, 7.96, 7.49, 7.82, 7.89, 7.2, 7.2, 2.04, 2.04, 3.02, 3.02, 3.94, 4.08, 4.97, 5.5, 5.67, 5.67, 5.67, 5.67, 5.85, 6.02, 6.02, 6.02, 6.02, 4.81, 4.81, 4.81, 4.95, 3.69, 3.79, 4.23, 4.23, 2.96, 2.65, 2.57, 2.57, 2.57, 3.79, 4.12, 2.8, 2.8, 2.57, 2.38, 2.45, 2.45, 2.21, 2.21, 2.09, 1.9, 2.31, 2.69, 2.92, 3.81, 4.08, 8.53, 9.58, 8.95, 7.14, 6.47, 7.04, 6.6, 7.06, 6.94, 7.06, 7.5, 7.15, 6.65, 7.1, 8.87, 8.49, 8.94, 9.29, 9.83, 10.22, 10.41, -9.39, -8.91, 0.0, 4.72, 4.24, -8.05, -14.19, -13.56, -6.31, 0.0, 4.46, 2.79, -6.6, -4.8, 8.94, 8.63, 8.95, 12.25, 12.25, 11.75, 10.86, 10.52, 11.28, 10.65, 8.23, 7.2, 7.1, 6.8, 6.85, 6.85, 2.04, 2.04, 3.02, 3.02, 3.94, 4.08, 4.08, 5.14, 5.67, 5.67, 5.67, 5.67, 5.85, 6.02, 6.02, 6.02, 6.02, 4.81, 4.81, 4.81, 4.81, 4.81, 3.69, 3.79, 4.23, 2.88, 2.65, 2.57, 2.5, 2.5, 2.8, 4.12, 2.98, 2.72, 2.72, 2.5, 2.38, 2.38, 2.38, 2.21, 2.15, 2.04, 2.51, 2.97, 2.54, 3.65, 6.51, 8.91, 10.25, 9.42, 6.92, 6.72, 6.47, 6.61, 6.6, 6.9, 7.33, 7.5, 7.57, 7.15, 7.6, 8.49, 8.94, 9.21, 8.91, 8.0, 9.29, 9.6, 7.27, 0.0, 0.0, 5.52, 6.57, 3.37, -11.48, -17.19, -14.37, -7.2, -2.01, 0.91, -1.09, -9.67, 13.41, 10.27, 9.03, 9.84, 9.52, 10.77, 10.43, 11.28, 12.39, 10.65, 8.31, 6.2, 6.2, 6.24, 5.96, 5.96, 1.9, 1.9, 1.9, 3.02, 3.02, 4.08, 4.08, 5.14, 5.67, 5.67, 5.67, 5.67, 5.67, 5.85, 6.02, 6.02, 4.95, 4.95, 4.95, 4.47, 4.47, 4.47, 3.79, 3.79, 3.79, 2.88, 2.65, 2.5, 3.59, 2.56, 2.72, 4.5, 4.37, 2.72, 2.64, 2.5, 2.31, 2.38, 2.38, 2.21, 2.21, 2.18, 2.61, 3.11, 3.11, 3.85, 5.06, 7.89, 8.85, 7.69, 6.28, 6.51, 6.3, 6.16, 6.23, 7.01, 6.85, 7.04, 7.57, 7.15, 7.15, 7.6, 8.94, 8.49, 8.48, 6.32, 6.01, 9.83, 7.59, 5.52, 5.21, 3.11, 4.24, 6.1, 1.74, -21.2, -17.26, -9.77, -6.2, -2.58, 0.0, 0.0, 5.37, 11.53, 10.79, 9.89, 9.0, 7.59, 9.8, 11.64, 12.72, 11.5, 8.59, 6.64, 5.28, 4.52, 4.4, 4.4, 1.9, 1.9, 1.9, 2.81, 2.81, 3.12, 4.08, 5.14, 5.67, 5.67, 5.67, 5.67, 5.67, 5.67, 6.02, 6.02, 4.95, 4.6, 4.6, 4.47, 4.6, 3.52, 3.79, 3.69, 3.79, 3.79, 2.57, 2.5, 2.35, 3.49, 3.76, 4.0, 4.12, 4.12, 2.72, 2.5, 2.31, 2.31, 2.38, 2.21, 2.38, 2.24, 3.04, 3.25, 3.95, 4.01, 4.87, 6.96, 8.22, 6.96, 7.46, 7.06, 6.92, 6.85, 6.67, 6.23, 5.7, 6.16, 6.6, 6.68, 6.26, 7.6, 8.94, 8.05, 8.49, 7.6, 7.07, 7.6, 7.27, 5.52, 4.88, 2.02, -1.58, 0.0, 3.35, -4.26, -15.2, -10.04, -6.0, -3.28, 0.0, 1.2, 3.24, 11.7, 12.42, 10.86, 8.54, 7.14, 9.8, 12.04, 12.71, 12.04, 8.38, 6.0, 4.08, 3.93, 3.47, 3.47, 0.92, 0.92, 1.9, 1.9, 1.9, 3.12, 4.08, 4.21, 5.5, 5.67, 5.67, 5.67, 5.67, 5.67, 5.46, 5.62, 4.6, 4.47, 4.47, 4.6, 4.6, 3.52, 3.52, 3.69, 3.69, 3.79, 2.57, 2.5, 2.5, 2.43, 3.58, 3.88, 3.88, 4.0, 2.72, 2.5, 2.31, 2.31, 2.21, 2.21, 1.2, 2.31, 3.25, 3.39, 3.95, 5.0, 5.2, 6.72, 8.53, 7.69, 7.67, 7.67, 7.28, 7.56, 7.56, 7.15, 6.67, 6.16, 6.6, 6.68, 7.6, 8.05, 8.49, 8.94, 8.05, 8.24, 8.49, 8.49, 6.95, 6.44, 6.17, 3.53, 0.0, -2.2, 1.07, 5.43, 0.0, -12.39, -3.93, -2.31, 0.0, 1.15, 2.05, 12.01, 17.43, 13.28, 9.48, 6.76, 10.37, 11.62, 11.84, 11.87, 8.85, 4.1, 1.43, 2.72, 2.64, 2.64, 0.86, 0.86, 0.96, 0.96, 2.04, 3.02, 4.08, 4.52, 5.5, 5.67, 5.67, 5.67, 5.67, 5.67, 5.46, 4.6, 4.47, 4.47, 4.47, 4.6, 3.52, 3.52, 3.52, 3.79, 3.69, 3.69, 2.57, 2.5, 2.5, 2.5, 3.58, 3.76, 3.76, 3.76, 2.64, 2.5, 2.31, 2.31, 2.31, 2.38, 1.2, 2.5, 3.36, 3.97, 4.92, 4.8, 5.2, 6.48, 8.53, 8.42, 8.63, 8.05, 7.28, 7.6, 7.76, 7.57, 7.6, 7.12, 6.6, 6.68, 6.26, 8.05, 8.05, 8.49, 8.94, 8.94, 8.49, 8.94, 7.81, 6.42, 6.17, 5.77, 3.04, 0.0, 0.0, 4.02, 6.22, 0.0, -2.21, -2.88, -1.11, 0.0, 1.78, 13.02, 15.18, 12.96, 12.04, 12.39, 10.01, 10.35, 9.3, 8.94, 8.22, 2.93, 0.0, 0.0, 1.96, 1.96, 0.0, 0.0, 0.0, 0.0, 1.03, 3.25, 4.38, 5.33, 5.5, 5.5, 5.67, 5.67, 5.3, 5.3, 4.34, 4.47, 4.47, 4.47, 4.47, 4.6, 3.52, 3.52, 3.52, 3.79, 3.79, 3.69, 2.5, 2.5, 2.43, 2.43, 3.58, 3.88, 3.76, 3.65, 2.56, 2.35, 2.24, 2.31, 2.31, 1.17, 1.17, 1.26, 3.47, 4.12, 4.25, 4.92, 4.8, 6.67, 8.53, 8.73, 8.3, 8.63, 8.05, 7.67, 7.56, 7.92, 8.01, 7.56, 7.01, 6.68, 7.15, 5.81, 8.05, 7.6, 8.49, 9.39, 8.49, 8.4, 7.81, 7.87, 7.9, 5.95, 6.0, 3.68, 0.0, 0.0, 6.31, 5.39, 1.47, 0.0, 0.0, 0.0, 0.0, 12.3, 11.99, 13.01, 12.96, 11.21, 9.97, 9.08, 8.22, 8.22, 6.7, 5.6, 2.06, 1.77, 0.0, 0.0, 0.0, 0.0, 0.0, 0.0, 1.11, 3.25, 4.38, 5.33, 5.5, 5.5, 5.14, 5.3, 5.3, 5.3, 4.34, 4.47, 4.47, 4.47, 4.47, 4.6, 3.52, 3.52, 3.52, 3.79, 3.69, 3.69, 2.5, 2.5, 2.43, 2.43, 3.58, 3.88, 3.76, 3.65, 2.48, 2.28, 2.18, 2.24, 2.24, 1.17, 1.17, 1.26, 3.65, 4.08, 4.0, 3.88, 4.92, 6.41, 8.69, 9.08, 9.05, 8.42, 8.43, 8.05, 7.98, 7.76, 8.01, 8.01, 7.12, 6.71, 7.15, 6.26, 8.05, 7.6, 8.49, 9.39, 8.49, 8.67, 8.4, 7.51, 7.68, 7.9, 8.05, 5.92, 3.3, -7.93, -2.81, 1.18, 2.25, 1.29, 2.66, 2.5, 1.98, 11.45, 12.14, 12.96, 12.71, 11.21, 9.77, 8.53, 7.54, 6.44, 6.44, 4.1, 2.13, 1.55, 0.0, 0.0, 0.0, 0.0, 0.0, 0.0, 2.2, 4.58, 4.74, 5.33, 5.5, 5.5, 5.14, 5.14, 5.14, 5.14, 4.34, 4.47, 4.47, 4.47, 4.47, 3.52, 3.52, 3.52, 3.52, 3.79, 3.79, 3.69, 2.5, 2.5, 2.43, 2.43, 3.47, 3.76, 3.76, 3.65, 2.48, 2.28, 2.11, 2.18, 2.24, 1.13, 1.13, 1.26, 3.53, 3.77, 3.51, 4.25, 5.75, 7.72, 9.02, 9.42, 9.08, 9.16, 9.2, 8.05, 7.73, 7.76, 8.36, 8.36, 7.57, 6.71, 7.15, 6.71, 8.05, 7.15, 8.05, 9.39, 8.94, 8.38, 8.48, 8.91, 8.91, 9.97, 7.54, 6.28, 7.17, -8.85, -14.22, -8.93, -2.35, 0.0, 3.2, 4.62, 4.05, 9.17, 12.3, 12.96, 13.15, 11.5, 8.1, 6.94, 5.6, 3.96, 3.96, 1.61, 1.43, 0.0, 0.0, 0.0, 0.0, 0.0, 0.0, 1.03, 3.25, 4.58, 5.55, 5.33, 5.5, 5.5, 5.14, 5.14, 5.14, 4.21, 4.34, 4.34, 4.47, 4.18, 4.47, 3.42, 3.52, 3.52, 3.52, 3.69, 3.69, 3.58, 2.43, 2.43, 2.43, 2.43, 3.47, 3.76, 3.76, 2.48, 2.48, 2.28, 2.11, 2.11, 1.1, 1.1, 1.13, 1.23, 3.53, 3.98, 3.99, 4.81, 6.9, 8.91, 9.69, 9.69, 9.77, 9.89, 9.16, 8.82, 7.6, 7.56, 8.19, 8.46, 7.57, 6.71, 7.15, 6.71, 5.36, 8.49, 8.49, 8.94, 8.05, 8.82, 8.48, 8.91, 9.33, 8.55, 6.94, 7.36, 9.14, 5.96, -15.65, -15.43, -12.01, 0.0, 5.48, 5.09, 3.78, 3.9, 12.96, 13.41, 12.79, 10.12, 6.0, 4.55, 1.83, 0.0, 0.0, 0.0, 0.0, -1.17, -1.04, 0.0, 0.0, 0.0, 0.92, 1.97, 3.25, 4.58, 5.55, 5.33, 5.33, 5.14, 5.14, 5.14, 5.14, 4.21, 4.34, 4.05, 4.18, 4.18, 3.18, 3.42, 3.42, 3.42, 3.52, 3.79, 3.69, 3.58, 2.43, 2.43, 2.43, 2.43, 2.35, 3.65, 3.65, 2.48, 2.48, 2.28, 2.11, 2.11, 1.06, 1.06, 0.0, 1.23, 2.48, 3.97, 3.67, 5.27, 8.2, 9.5, 10.36, 10.02, 10.59, 10.25, 9.52, 9.2, 8.0, 7.47, 7.98, 8.36, 8.01, 7.15, 7.15, 7.13, 7.5, 7.6, 8.05, 8.49, 8.49, 9.39, 8.38, 9.03, 9.33, 8.8, 7.26, 7.28, 8.46, 12.17, 4.77, -19.03, -14.99, 0.0, 12.27, 9.42, 6.97, 4.27, 3.69, 7.44, 8.58, 5.31, 1.66, 1.29, 0.0, -1.61, -3.14, -2.32, -3.14, -3.14, -3.04, -3.04, 0.86, 0.86, 1.71, 1.83, 2.92, 4.24, 5.16, 5.33, 5.33, 4.97, 4.97, 5.14, 4.21, 4.21, 3.93, 4.05, 4.05, 4.18, 3.09, 3.42, 3.42, 3.42, 3.42, 3.42, 3.69, 3.58, 2.43, 2.43, 2.43, 2.43, 2.35, 3.65, 3.65, 2.48, 2.4, 2.28, 2.11, 1.06, 1.06, 0.0, 0.0, 1.19, 2.48, 3.18, 3.97, 5.18, 6.85, 7.95, 9.17, 9.69, 10.23, 9.53, 9.16, 8.43, 7.6, 7.2, 8.19, 8.36, 8.01, 7.6, 7.15, 7.51, 6.47, 7.89, 8.05, 8.49, 8.94, 8.94, 8.38, 9.26, 9.33, 8.43, 7.9, 5.95, 7.11, 8.16, 10.49, 7.21, -18.78, -0.0, 13.59, 9.09, 6.92, 7.07, 3.28, 2.63, 0.0, 0.0, 0.0, -1.17, -1.17, -3.41, -4.81, -4.81, -4.65, -4.81, -4.81, -4.81, 1.61, 1.61, 1.61, 1.71, 2.92, 4.24, 5.16, 5.16, 5.33, 4.97, 4.97, 4.08, 4.21, 3.93, 3.93, 4.05, 4.05, 3.09, 3.09, 3.42, 3.42, 3.42, 3.42, 3.42, 3.58, 3.47, 2.43, 2.43, 2.43, 2.43, 2.35, 2.28, 2.48, 2.4, 2.4, 2.2, 1.06, 1.06, 1.06, 0.0, 0.0, 1.19, 2.48, 3.29, 4.12, 5.18, 6.9, 7.96, 8.53, 8.22, 8.82, 8.82, 8.12, 7.67, 7.28, 7.2, 7.56, 7.76, 7.92, 7.57, 7.15, 7.51, 7.4, 7.63, 8.05, 8.49, 8.94, 8.94, 8.38, 8.82, 8.72, 8.05, 6.95, 5.69, 4.81, 5.43, 7.0, 9.0, 8.28, 7.14, 5.23, 4.45, 4.31, 6.18, 5.07, 1.66, -2.63, -4.98, -3.25, -3.41, -3.04, -4.28, -5.8, -6.21, -5.6, -5.4, -5.4, -5.4, 1.55, 1.55, 1.61, 1.71, 2.72, 4.1, 5.16, 5.16, 4.81, 4.97, 4.97, 4.08, 3.93, 3.93, 3.93, 4.05, 3.09, 3.09, 3.09, 3.32, 3.42, 3.42, 3.42, 3.42, 3.42, 3.58, 2.43, 2.43, 2.43, 2.43, 2.35, 2.35, 2.48, 2.48, 2.4, 1.11, 1.03, 1.06, 0.0, 0.0, 0.0, 1.19, 2.48, 3.41, 4.12, 4.99, 6.44, 7.68, 8.22, 7.59, 7.4, 7.06, 6.7, 7.07, 7.28, 7.47, 7.06, 7.33, 7.48, 7.57, 7.15, 7.51, 7.26, 6.3, 8.33, 8.49, 8.94, 8.05, 8.82, 8.82, 8.8, 7.67, 6.64, 5.45, 5.0, 4.64, 5.46, 7.32, 9.47, 10.64, 10.27, 6.29, 1.78, 4.59, 5.53, 2.98, -2.13, -8.38, -6.43, -5.08, -4.71, -7.02, -7.78, -7.68, -6.92, -6.67, -6.67, -6.67, 1.55, 1.55, 1.55, 1.71, 2.72, 4.1, 5.16, 5.16, 4.81, 4.97, 4.08, 4.08, 3.93, 3.93, 3.93, 3.09, 3.09, 3.09, 3.09, 3.09, 3.32, 3.32, 3.42, 3.42, 3.32, 3.58, 2.43, 2.43, 2.43, 2.43, 2.35, 2.35, 2.48, 2.48, 2.2, 1.11, 1.03, 1.06, 0.0, 0.0, 0.0, 1.19, 2.48, 3.53, 4.28, 5.4, 6.44, 7.68, 7.41, 7.9, 7.74, 6.73, 6.7, 6.7, 6.7, 7.47, 7.47, 7.14, 6.9, 7.13, 7.15, 7.58, 7.4, 6.79, 5.7, 8.94, 8.49, 8.05, 8.38, 8.77, 8.3, 8.05, 6.95, 5.1, 5.43, 5.4, 5.8, 6.73, 8.18, 9.67, 10.57, 10.94, 4.4, 0.0, 2.06, 1.65, -1.83, -7.19, -8.3, -7.44, -6.21, -7.59, -8.22, -7.56, -6.97, -6.71, -6.71, -6.71, 0.78, 0.78, 0.78, 1.71, 2.92, 4.1, 4.99, 5.16, 3.94, 4.08, 4.08, 3.81, 3.81, 3.93, 3.0, 3.0, 3.0, 3.0, 3.0, 3.0, 3.32, 3.32, 3.32, 3.42, 3.69, 3.58, 2.35, 2.43, 2.43, 2.43, 2.43, 2.35, 2.56, 2.48, 2.2, 1.11, 1.03, 1.03, 0.0, 0.0, 0.0, 1.15, 2.48, 3.53, 4.43, 5.4, 6.44, 6.94, 7.68, 7.65, 7.59, 7.06, 6.73, 6.7, 7.03, 7.47, 7.06, 7.06, 6.9, 6.68, 7.15, 7.58, 7.4, 6.79, 6.14, 8.49, 8.49, 8.49, 8.94, 8.33, 8.77, 8.72, 7.68, 6.87, 7.27, 6.97, 6.72, 7.03, 7.79, 8.66, 8.86, 10.3, 11.36, 3.41, -4.91, -2.53, -2.15, -7.19, -9.17, -7.24, -5.2, -7.9, -8.94, -7.59, -7.59, -7.59, -7.59, -7.59, 0.78, 0.78, 0.78, 1.77, 2.92, 4.1, 4.99, 3.94, 3.94, 3.94, 4.08, 3.81, 3.81, 3.0, 3.0, 3.0, 3.0, 3.0, 3.0, 3.0, 3.32, 3.32, 3.42, 3.42, 3.69, 2.43, 2.35, 2.28, 2.35, 2.35, 2.43, 2.43, 2.56, 2.48, 2.2, 1.11, 1.03, 0.96, 0.0, 0.0, 1.11, 1.15, 2.48, 3.53, 4.43, 5.6, 6.67, 6.94, 6.94, 7.65, 7.06, 7.74, 7.06, 6.73, 7.03, 7.03, 7.06, 7.06, 6.9, 6.61, 7.15, 7.58, 7.26, 6.6, 5.88, 7.89, 8.05, 8.49, 8.94, 8.24, 8.72, 8.72, 9.2, 8.24, 8.15, 7.9, 7.72, 7.93, 8.3, 8.66, 8.31, 9.92, 14.05, 13.74, -8.48, -17.11, -10.46, -7.36, -6.21, -7.24, -6.45, -5.0, -7.59, -8.55, -7.59, -7.59, -7.59, -7.59, 0.78, 0.78, 0.83, 1.77, 3.04, 4.1, 4.1, 3.94, 3.94, 3.94, 3.81, 2.9, 2.9, 3.0, 3.0, 3.0, 3.0, 3.0, 3.0, 3.22, 3.22, 3.32, 3.32, 2.24, 2.43, 2.43, 2.35, 2.28, 2.28, 2.28, 2.28, 2.35, 2.56, 2.48, 1.11, 1.11, 1.03, 0.0, 0.0, 0.0, 1.11, 1.11, 2.28, 3.53, 4.43, 5.6, 5.8, 7.19, 6.7, 7.14, 7.06, 7.27, 7.4, 7.06, 6.7, 7.03, 7.35, 7.47, 7.28, 6.6, 7.15, 7.13, 7.4, 6.6, 6.0, 6.79, 7.6, 8.05, 8.49, 8.67, 8.91, 9.39, 9.33, 9.45, 9.1, 8.41, 8.22, 8.53, 8.42, 8.37, 8.56, 8.99, 12.5, 15.23, 12.0, -21.63, -13.19, -3.39, 0.0, -2.28, -3.53, 0.0, 0.0, -10.28, -9.75, -8.55, -8.55, -8.55, 0.0, 0.0, 0.83, 1.9, 3.96, 4.1, 3.81, 3.81, 3.94, 3.94, 2.9, 2.9, 3.0, 3.0, 2.9, 2.9, 2.9, 2.9, 2.9, 3.22, 3.22, 2.24, 2.24, 2.24, 2.43, 2.43, 2.35, 2.35, 2.28, 2.2, 2.2, 2.2, 2.48, 2.48, 1.11, 0.99, 0.99, 0.0, 0.0, 0.99, 1.11, 2.2, 2.2, 3.53, 4.43, 5.8, 5.8, 6.08, 6.7, 6.45, 7.06, 6.77, 7.4, 7.15, 7.07, 7.42, 7.35, 7.35, 7.28, 6.6, 6.71, 7.15, 6.94, 6.6, 5.75, 6.0, 7.06, 7.6, 7.97, 8.38, 8.3, 8.67, 9.39, 10.14, 10.05, 9.38, 8.82, 8.69, 8.97, 8.3, 8.29, 8.05, 8.72, 11.29, 11.99, -3.86, -0.0, 0.0, 0.0, 2.28, 2.82, 0.0, -10.73, -10.73, -10.28, -9.33, -9.33, -9.33, 0.0, 0.0, 0.86, 2.81, 3.04, 3.96, 3.81, 3.81, 3.94, 2.81, 2.9, 2.9, 3.0, 3.0, 2.9, 2.81, 2.81, 1.96, 2.02, 2.18, 2.18, 2.18, 2.24, 2.43, 2.43, 2.43, 2.35, 2.35, 2.28, 2.28, 2.2, 2.2, 2.4, 2.4, 1.08, 0.99, 0.0, 0.0, 0.0, 0.99, 1.08, 1.08, 2.2, 3.53, 4.43, 4.81, 5.6, 5.6, 5.86, 6.45, 6.44, 6.48, 6.48, 7.06, 7.15, 7.03, 7.03, 6.94, 7.28, 7.01, 6.71, 6.71, 6.61, 6.79, 5.75, 4.65, 6.0, 7.08, 7.6, 7.97, 8.17, 8.22, 8.91, 9.39, 10.18, 9.6, 8.93, 8.82, 8.22, 7.64, 7.9, 7.79, 6.65, 6.2, 21.99, -0.0, -0.0, -11.62, 0.0, 5.95, 7.9, 3.53, -10.73, -9.6, -8.8, -9.39, -9.39, -9.39, 0.0, 0.0, 0.86, 2.93, 3.04, 3.96, 3.68, 2.92, 2.92, 2.81, 2.9, 2.9, 3.0, 2.9, 1.9, 1.9, 1.96, 1.96, 2.02, 2.18, 2.18, 2.18, 2.24, 2.43, 2.43, 2.35, 2.35, 2.28, 2.28, 2.28, 2.2, 2.2, 2.4, 1.21, 1.08, 0.99, 0.0, 0.0, 0.0, 1.08, 1.08, 1.08, 2.13, 3.41, 3.41, 4.81, 5.6, 5.6, 5.86, 6.45, 5.95, 6.77, 6.77, 7.06, 7.15, 6.79, 7.03, 6.94, 6.79, 7.01, 6.67, 6.71, 6.68, 6.51, 5.89, 4.71, 5.06, 5.75, 7.6, 8.05, 8.41, 8.6, 8.22, 8.48, 9.7, 9.54, 9.38, 8.82, 7.42, 6.98, 6.97, 7.01, 6.6, 7.82, 23.69, -0.0, -0.0, 13.86, 11.62, 9.97, 8.38, 5.98, 0.0, -11.18, -10.18, -8.48, -8.48, -8.48, 0.8, 0.8, 1.84, 2.93, 3.04, 2.81, 2.81, 2.92, 2.72, 2.81, 2.9, 2.9, 1.96, 1.96, 1.9, 1.9, 1.96, 1.96, 2.11, 2.18, 2.18, 2.18, 2.24, 2.43, 2.43, 2.35, 2.35, 1.15, 1.15, 2.2, 2.2, 2.2, 2.4, 1.21, 1.08, 0.96, 0.0, 0.0, 0.96, 1.04, 1.08, 1.08, 2.13, 3.14, 3.41, 4.43, 4.65, 5.6, 5.4, 5.64, 5.95, 6.17, 6.95, 6.64, 7.15, 6.79, 7.2, 7.2, 6.94, 6.79, 6.67, 6.71, 6.68, 6.6, 6.3, 5.21, 3.79, 3.78, 7.06, 8.05, 8.49, 8.38, 8.48, 8.91, 9.39, 9.76, 9.75, 8.79, 7.59, 7.18, 7.08, 7.12, 9.99, 10.8, -0.0, 3.31, 15.19, 13.86, 12.35, 11.03, 8.73, 7.65, 5.98, 0.0, -11.18, -9.83, -9.83, -9.83, 0.8, 0.8, 1.84, 2.93, 2.93, 2.81, 2.81, 2.92, 2.72, 2.81, 1.9, 1.9, 1.9, 1.9, 1.83, 1.9, 1.96, 1.96, 2.11, 2.18, 2.18, 2.18, 2.18, 2.35, 2.35, 1.19, 1.15, 1.15, 1.15, 1.11, 2.13, 2.2, 1.21, 1.21, 1.08, 0.0, 0.0, 0.89, 0.93, 0.96, 1.04, 1.04, 2.13, 3.14, 3.41, 4.28, 4.65, 4.65, 5.6, 5.2, 5.95, 5.7, 6.48, 6.64, 6.79, 6.79, 7.2, 6.82, 6.8, 7.21, 6.98, 7.15, 6.67, 6.68, 6.47, 6.1, 5.21, 4.07, 6.4, 7.45, 8.05, 8.33, 8.3, 9.26, 9.39, 9.26, 9.77, 8.99, 7.97, 7.9, 7.48, 8.01, 10.65, 14.78, 18.02, 3.23, 14.39, 12.52, 10.91, 9.6, 8.41, 7.26, 6.7, 4.32, 0.0, -10.28, -10.28, -10.28, 0.77, 0.77, 1.84, 2.93, 2.93, 2.71, 2.81, 2.92, 2.62, 1.83, 1.83, 1.83, 1.83, 1.83, 1.83, 1.9, 1.96, 1.96, 2.11, 2.11, 2.18, 2.18, 2.18, 1.19, 1.19, 1.19, 1.15, 1.15, 1.11, 1.11, 1.08, 1.11, 1.21, 1.21, 1.08, 1.04, 0.96, 0.89, 0.93, 0.93, 1.04, 2.06, 2.06, 3.04, 3.04, 3.29, 4.28, 4.65, 5.6, 5.2, 4.8, 5.7, 5.9, 6.11, 6.32, 6.45, 6.91, 6.82, 6.8, 7.12, 7.42, 7.11, 6.71, 7.12, 7.01, 6.04, 6.0, 5.21, 5.2, 7.45, 8.05, 8.33, 8.77, 8.77, 9.39, 9.11, 9.11, 9.21, 7.74, 7.59, 7.18, 7.69, 8.51, 13.2, 9.47, 9.6, 12.56, 12.96, 9.42, 9.1, 8.41, 6.98, 6.09, 4.81, 2.28, -11.62, -11.62, -11.62, 0.83, 0.83, 1.77, 1.98, 2.61, 2.71, 1.84, 1.9, 1.77, 1.77, 1.83, 1.83, 1.83, 1.83, 1.83, 1.9, 1.96, 2.11, 2.11, 2.11, 1.06, 1.1, 1.1, 1.19, 1.19, 1.15, 1.15, 1.11, 1.11, 1.11, 1.08, 1.11, 1.21, 1.17, 1.08, 1.04, 0.96, 0.0, 0.93, 0.93, 1.04, 2.06, 3.04, 3.04, 3.04, 3.04, 4.28, 4.28, 4.28, 5.2, 4.8, 5.7, 5.9, 5.63, 6.11, 6.79, 6.45, 6.91, 7.2, 6.8, 7.12, 7.11, 7.15, 7.11, 7.12, 6.58, 6.0, 5.37, 4.93, 7.06, 8.05, 8.05, 8.49, 8.49, 8.94, 8.94, 8.77, 9.83, 7.56, 7.27, 6.57, 6.21, 6.28, 7.96, 10.91, 10.8, 10.87, 13.96, 9.4, 8.12, 7.06, 6.98, 5.47, 4.75, 2.82, -8.22, -8.22, -8.22, 0.83, 0.83, 1.77, 1.77, 1.77, 1.84, 1.84, 1.71, 1.71, 1.77, 1.77, 1.83, 1.83, 0.92, 0.92, 0.96, 0.96, 1.06, 1.06, 1.06, 1.06, 1.1, 1.1, 1.19, 1.15, 1.15, 1.15, 1.11, 1.11, 1.08, 1.08, 1.21, 1.21, 1.17, 1.04, 1.04, 0.0, 0.0, 0.0, 0.93, 2.06, 2.06, 2.06, 2.93, 2.93, 2.93, 4.28, 4.28, 4.28, 3.97, 4.8, 4.99, 5.46, 5.9, 6.11, 5.82, 6.45, 6.55, 6.55, 6.6, 6.7, 6.94, 7.15, 7.6, 7.55, 6.98, 5.81, 5.47, 5.31, 7.47, 7.89, 8.05, 8.05, 8.33, 8.49, 8.94, 8.94, 8.94, 8.72, 6.69, 6.41, 5.51, 4.71, 5.16, 8.17, 7.35, 17.78, 14.42, 11.72, 7.59, 6.15, 5.35, 4.32, 3.73, 2.82, -2.82, -2.82, -2.82, 0.8, 0.8, 1.7, 1.77, 1.77, 1.77, 1.77, 1.71, 1.71, 0.89, 0.89, 0.92, 0.92, 0.92, 0.92, 0.96, 1.06, 1.03, 1.06, 1.06, 1.06, 1.1, 1.19, 1.19, 1.15, 1.15, 1.11, 1.21, 1.21, 1.08, 1.17, 1.21, 1.21, 1.17, 1.04, 1.04, 0.0, 0.0, 0.0, 1.0, 1.98, 1.98, 1.98, 1.98, 2.93, 2.93, 2.93, 4.12, 4.12, 3.82, 4.44, 4.6, 4.99, 5.21, 5.63, 6.11, 5.82, 5.69, 6.55, 6.18, 6.6, 6.99, 7.37, 7.6, 7.54, 7.1, 6.55, 6.0, 6.07, 6.21, 6.79, 8.33, 7.81, 7.81, 8.24, 8.94, 8.94, 9.39, 9.54, 6.58, 5.95, 5.2, 4.71, 5.01, 6.88, 7.53, 11.17, 15.65, 12.42, 7.82, 5.63, 4.01, 2.99, 2.37, 1.71, 0.0, 0.0, 0.0, 0.8, 0.8, 1.7, 1.7, 1.7, 1.77, 0.89, 0.86, 0.86, 0.89, 0.89, 0.89, 0.92, 0.92, 0.92, 1.03, 1.03, 1.03, 1.03, 1.06, 1.06, 1.15, 1.19, 1.19, 1.15, 1.11, 1.21, 1.21, 1.17, 1.17, 1.17, 1.21, 1.21, 1.17, 1.04, 0.0, 0.0, 0.0, 0.93, 1.0, 1.98, 1.98, 1.98, 1.98, 1.91, 2.82, 2.82, 3.82, 3.97, 3.67, 4.44, 4.6, 4.99, 4.99, 5.21, 5.63, 5.82, 5.53, 6.01, 6.18, 5.84, 6.6, 6.99, 7.97, 8.05, 7.52, 7.08, 6.57, 6.21, 6.6, 6.8, 8.67, 7.81, 8.48, 7.81, 8.24, 8.94, 9.39, 9.39, 7.87, 5.69, 4.3, 4.81, 4.98, 7.2, 9.16, 9.12, 12.22, 10.86, 8.15, 7.26, 4.75, 2.99, 2.22, 1.55, 0.0, 0.0, 0.0, 0.8, 0.8, 0.86, 0.86, 0.86, 0.89, 0.89, 0.86, 0.86, 0.89, 0.89, 0.89, 0.0, 0.0, 0.99, 1.03, 1.03, 1.03, 1.03, 1.06, 1.06, 1.15, 1.15, 1.15, 1.15, 1.11, 1.11, 1.21, 1.17, 1.17, 1.17, 1.21, 1.17, 1.13, 1.04, 0.0, 0.0, 0.93, 0.89, 0.97, 1.0, 1.0, 1.91, 1.91, 1.84, 2.71, 2.71, 2.71, 3.53, 3.67, 4.25, 4.6, 4.6, 4.99, 4.78, 5.21, 4.98, 5.82, 5.53, 5.69, 5.69, 6.18, 6.7, 7.2, 7.94, 7.6, 7.15, 7.5, 6.8, 6.8, 6.8, 6.79, 6.36, 8.48, 7.81, 8.24, 8.94, 9.39, 9.39, 8.8, 5.7, 4.62, 3.91, 4.91, 6.68, 10.16, 10.17, 10.39, 10.43, 8.94, 7.97, 6.6, 4.71, 2.76, 1.5, 0.0, 0.0, 0.0, 0.8, 0.8, 0.86, 0.86, 0.86, 0.89, 0.89, 0.86, 0.86, 0.89, 0.89, 0.89, 0.0, 0.0, 0.99, 1.03, 1.03, 1.03, 1.03, 1.06, 1.06, 1.15, 1.15, 1.15, 1.15, 1.11, 1.11, 1.21, 1.17, 1.17, 1.17, 1.21, 1.17, 1.13, 1.04, 0.0, 0.0, 0.93, 0.89, 0.97, 1.0, 1.0, 1.91, 1.91, 1.84, 2.71, 2.71, 2.71, 3.53, 3.67, 4.25, 4.6, 4.6, 4.99, 4.78, 5.21, 4.98, 5.82, 5.53, 5.69, 5.69, 6.18, 6.7, 7.2, 7.94, 7.6, 7.15, 7.5, 6.8, 6.8, 6.8, 6.79, 6.36, 8.48, 7.81, 8.24, 8.94, 9.39, 9.39, 8.8, 5.7, 4.36, 4.47, 4.81, 6.35, 9.12, 11.27, 10.87, 10.75, 9.62, 8.91, 8.28, 7.0, 5.02, 3.11, 1.23, 1.23, 1.23]}]